QTR780 SBGR-OTHH

Flight info

Callsign QTR780
Flight time N/A
Altitude 35000
Route UREMI UZ42 CXI UL340 ADA UZ45 RODIX DCT TOSIV UZ48 PAKIP/N0494F370 UZ48 GENED DCT RASAD DCT AMPAN UQ589 LIREX/N0488F390 UQ589 GATAG DCT TJR DCT ENERI UQ589 IPONO DCT KITOB M863 UMIDA/N0479F410 M863 JDW B417 PATOR T532 DAW J852 KSA H744 KINIB Z511 GISRA DCT ORLEK
Aircraft A359/H-SDE2E3GHIJ3J4J5LM1ORWXY/LB1D1

Departure

Time 2026-05-06 03:12
Airport São Paulo/Guarulhos–Governor André Franco Montoro International Airport (SBGR)

Arrival

Time N/A
Airport Hamad International Airport (OTHH)
Time Latitude Longitude Altitude Speed Heading
2026-05-06 02:48 -23.42670 -46.47282 2416 ft 0 kts 253°
2026-05-06 03:00 -23.42667 -46.47274 2474 ft 4 kts 253°
2026-05-06 03:01 -23.42660 -46.47246 2474 ft 4 kts 253°
2026-05-06 03:01 -23.42652 -46.47218 2471 ft 4 kts 253°
2026-05-06 03:01 -23.42644 -46.47195 2471 ft 4 kts 221°
2026-05-06 03:01 -23.42623 -46.47189 2486 ft 4 kts 163°
2026-05-06 03:02 -23.42605 -46.47195 2496 ft 0 kts 164°
2026-05-06 03:04 -23.42606 -46.47195 2496 ft 0 kts 164°
2026-05-06 03:04 -23.42614 -46.47192 2480 ft 3 kts 164°
2026-05-06 03:04 -23.42635 -46.47186 2470 ft 5 kts 164°
2026-05-06 03:05 -23.42669 -46.47175 2496 ft 5 kts 164°
2026-05-06 03:05 -23.42710 -46.47163 2476 ft 8 kts 163°
2026-05-06 03:05 -23.42764 -46.47145 2471 ft 8 kts 163°
2026-05-06 03:05 -23.42815 -46.47129 2477 ft 7 kts 163°
2026-05-06 03:06 -23.42857 -46.47115 2476 ft 6 kts 163°
2026-05-06 03:06 -23.42898 -46.47107 2475 ft 6 kts 185°
2026-05-06 03:06 -23.42932 -46.47149 2475 ft 11 kts 246°
2026-05-06 03:06 -23.42958 -46.47235 2474 ft 13 kts 252°
2026-05-06 03:07 -23.42982 -46.47327 2476 ft 12 kts 254°
2026-05-06 03:07 -23.43007 -46.47417 2471 ft 12 kts 253°
2026-05-06 03:07 -23.43031 -46.47505 2476 ft 12 kts 253°
2026-05-06 03:07 -23.43054 -46.47593 2473 ft 13 kts 253°
2026-05-06 03:08 -23.43079 -46.47684 2471 ft 12 kts 253°
2026-05-06 03:08 -23.43102 -46.47771 2474 ft 12 kts 253°
2026-05-06 03:08 -23.43125 -46.47856 2478 ft 12 kts 253°
2026-05-06 03:08 -23.43148 -46.47942 2473 ft 12 kts 253°
2026-05-06 03:09 -23.43171 -46.48025 2476 ft 11 kts 253°
2026-05-06 03:09 -23.43192 -46.48102 2475 ft 10 kts 253°
2026-05-06 03:09 -23.43210 -46.48169 2476 ft 11 kts 253°
2026-05-06 03:09 -23.43234 -46.48259 2477 ft 13 kts 253°
2026-05-06 03:10 -23.43265 -46.48351 2476 ft 13 kts 229°
2026-05-06 03:10 -23.43350 -46.48349 2473 ft 15 kts 163°
2026-05-06 03:10 -23.43398 -46.48331 2473 ft 7 kts 150°
2026-05-06 03:10 -23.43412 -46.48280 2472 ft 9 kts 87°
2026-05-06 03:11 -23.43403 -46.48241 2469 ft 0 kts 73°
2026-05-06 03:11 -23.43402 -46.48236 2468 ft 4 kts 73°
2026-05-06 03:11 -23.43347 -46.48031 2472 ft 60 kts 73°
2026-05-06 03:11 -23.43164 -46.47355 2470 ft 124 kts 73°
2026-05-06 03:12 -23.42867 -46.46258 2472 ft 177 kts 73°
2026-05-06 03:12 -23.42486 -46.44883 2901 ft 193 kts 72°
2026-05-06 03:12 -23.42089 -46.43518 3780 ft 185 kts 72°
2026-05-06 03:12 -23.41709 -46.42202 4142 ft 187 kts 72°
2026-05-06 03:13 -23.41293 -46.40797 4310 ft 198 kts 72°
2026-05-06 03:13 -23.40865 -46.39342 4483 ft 210 kts 72°
2026-05-06 03:13 -23.40412 -46.37776 4637 ft 224 kts 73°
2026-05-06 03:13 -23.40162 -46.36054 4752 ft 239 kts 93°
2026-05-06 03:14 -23.40538 -46.34242 4941 ft 253 kts 107°
2026-05-06 03:14 -23.41142 -46.32407 5244 ft 260 kts 109°
2026-05-06 03:14 -23.41780 -46.30542 5647 ft 264 kts 109°
2026-05-06 03:14 -23.42415 -46.28656 6099 ft 267 kts 109°
2026-05-06 03:15 -23.43050 -46.26748 6568 ft 269 kts 109°
2026-05-06 03:15 -23.43668 -46.24817 7002 ft 271 kts 106°
2026-05-06 03:15 -23.44112 -46.22813 7393 ft 274 kts 101°
2026-05-06 03:15 -23.44474 -46.20769 7833 ft 276 kts 100°
2026-05-06 03:16 -23.44827 -46.18704 8282 ft 278 kts 100°
2026-05-06 03:16 -23.45179 -46.16652 8722 ft 280 kts 100°
2026-05-06 03:16 -23.45539 -46.14558 9139 ft 283 kts 101°
2026-05-06 03:16 -23.45906 -46.12437 9587 ft 286 kts 101°
2026-05-06 03:17 -23.46276 -46.10297 10051 ft 288 kts 101°
2026-05-06 03:17 -23.46648 -46.08145 10413 ft 293 kts 101°
2026-05-06 03:17 -23.47033 -46.05923 10606 ft 304 kts 101°
2026-05-06 03:17 -23.47433 -46.03611 10796 ft 316 kts 101°
2026-05-06 03:18 -23.47847 -46.01214 10977 ft 327 kts 101°
2026-05-06 03:18 -23.48274 -45.98744 11162 ft 337 kts 101°
2026-05-06 03:18 -23.48709 -45.96223 11339 ft 347 kts 101°
2026-05-06 03:18 -23.49001 -45.93572 11517 ft 358 kts 90°
2026-05-06 03:19 -23.48665 -45.90852 11716 ft 367 kts 78°
2026-05-06 03:19 -23.48024 -45.88146 12026 ft 372 kts 75°
2026-05-06 03:19 -23.47338 -45.85415 12372 ft 375 kts 75°
2026-05-06 03:19 -23.46648 -45.82661 12739 ft 378 kts 76°
2026-05-06 03:20 -23.45269 -45.77092 13422 ft 383 kts 76°
2026-05-06 03:20 -23.44586 -45.74317 13757 ft 385 kts 76°
2026-05-06 03:20 -23.43890 -45.71489 14102 ft 388 kts 76°
2026-05-06 03:21 -23.43190 -45.68644 14395 ft 390 kts 76°
2026-05-06 03:21 -23.42487 -45.65787 14708 ft 392 kts 76°
2026-05-06 03:21 -23.41778 -45.62906 15014 ft 394 kts 76°
2026-05-06 03:21 -23.41063 -45.60006 15316 ft 397 kts 76°
2026-05-06 03:22 -23.40346 -45.57096 15615 ft 399 kts 75°
2026-05-06 03:22 -23.39623 -45.54169 15944 ft 400 kts 75°
2026-05-06 03:22 -23.38896 -45.51226 16244 ft 403 kts 75°
2026-05-06 03:22 -23.38205 -45.48303 16517 ft 405 kts 77°
2026-05-06 03:23 -23.37556 -45.45300 16807 ft 408 kts 77°
2026-05-06 03:23 -23.36931 -45.42285 17101 ft 410 kts 77°
2026-05-06 03:23 -23.36306 -45.39246 17379 ft 413 kts 77°
2026-05-06 03:23 -23.35673 -45.36193 17699 ft 414 kts 77°
2026-05-06 03:24 -23.35030 -45.33127 17988 ft 416 kts 77°
2026-05-06 03:24 -23.34380 -45.30049 18254 ft 419 kts 77°
2026-05-06 03:24 -23.33720 -45.26950 18528 ft 421 kts 76°
2026-05-06 03:24 -23.33279 -45.24893 18671 ft 423 kts 76°
2026-05-06 03:25 -23.32607 -45.21766 18927 ft 424 kts 76°
2026-05-06 03:25 -23.31932 -45.18634 19163 ft 427 kts 76°
2026-05-06 03:25 -23.31252 -45.15483 19419 ft 428 kts 76°
2026-05-06 03:25 -23.30571 -45.12326 19705 ft 429 kts 76°
2026-05-06 03:26 -23.29887 -45.09156 19887 ft 432 kts 76°
2026-05-06 03:26 -23.29201 -45.05981 20160 ft 432 kts 76°
2026-05-06 03:26 -23.28511 -45.02788 20378 ft 435 kts 76°
2026-05-06 03:26 -23.27825 -44.99618 20622 ft 436 kts 77°
2026-05-06 03:27 -23.27129 -44.96401 20880 ft 438 kts 77°
2026-05-06 03:27 -23.26428 -44.93164 21103 ft 439 kts 77°
2026-05-06 03:27 -23.25726 -44.89928 21339 ft 441 kts 77°
2026-05-06 03:27 -23.25019 -44.86672 21571 ft 443 kts 77°
2026-05-06 03:28 -23.24310 -44.83414 21797 ft 444 kts 77°
2026-05-06 03:28 -23.23597 -44.80141 22050 ft 446 kts 77°
2026-05-06 03:28 -23.22880 -44.76849 22225 ft 448 kts 77°
2026-05-06 03:28 -23.22157 -44.73535 22432 ft 450 kts 77°
2026-05-06 03:29 -23.21433 -44.70220 22659 ft 452 kts 77°
2026-05-06 03:29 -23.20705 -44.66888 22870 ft 454 kts 77°
2026-05-06 03:29 -23.19972 -44.63540 23101 ft 455 kts 77°
2026-05-06 03:29 -23.19249 -44.60228 23295 ft 457 kts 77°
2026-05-06 03:30 -23.18511 -44.56855 23523 ft 459 kts 77°
2026-05-06 03:30 -23.17770 -44.53476 23719 ft 461 kts 77°
2026-05-06 03:30 -23.17025 -44.50085 23905 ft 462 kts 77°
2026-05-06 03:30 -23.16274 -44.46678 24094 ft 464 kts 77°
2026-05-06 03:31 -23.15518 -44.43254 24270 ft 466 kts 77°
2026-05-06 03:31 -23.14761 -44.39827 24455 ft 467 kts 77°
2026-05-06 03:31 -23.14001 -44.36387 24635 ft 469 kts 77°
2026-05-06 03:31 -23.13237 -44.32934 24831 ft 470 kts 77°
2026-05-06 03:32 -23.12472 -44.29478 25020 ft 472 kts 77°
2026-05-06 03:32 -23.11713 -44.26050 25209 ft 473 kts 77°
2026-05-06 03:32 -23.10942 -44.22574 25398 ft 475 kts 77°
2026-05-06 03:32 -23.10167 -44.19083 25589 ft 476 kts 78°
2026-05-06 03:33 -23.09386 -44.15568 25785 ft 478 kts 78°
2026-05-06 03:33 -23.08604 -44.12052 25987 ft 479 kts 78°
2026-05-06 03:33 -23.07820 -44.08531 26169 ft 481 kts 78°
2026-05-06 03:33 -23.07032 -44.04996 26399 ft 482 kts 78°
2026-05-06 03:34 -23.06240 -44.01448 26604 ft 483 kts 78°
2026-05-06 03:34 -23.05456 -43.97941 26785 ft 485 kts 78°
2026-05-06 03:34 -23.04659 -43.94379 27016 ft 487 kts 78°
2026-05-06 03:34 -23.03857 -43.90798 27208 ft 488 kts 78°
2026-05-06 03:35 -23.03050 -43.87198 27415 ft 490 kts 78°
2026-05-06 03:35 -23.02241 -43.83596 27619 ft 492 kts 78°
2026-05-06 03:35 -23.01428 -43.79978 27829 ft 494 kts 78°
2026-05-06 03:35 -23.00611 -43.76347 28050 ft 495 kts 78°
2026-05-06 03:36 -22.99786 -43.72761 28237 ft 497 kts 76°
2026-05-06 03:36 -22.98666 -43.69202 28435 ft 500 kts 70°
2026-05-06 03:36 -22.97381 -43.65686 28640 ft 501 kts 69°
2026-05-06 03:36 -22.96042 -43.62194 28878 ft 503 kts 68°
2026-05-06 03:37 -22.94665 -43.58692 29054 ft 505 kts 68°
2026-05-06 03:37 -22.93269 -43.55180 29222 ft 506 kts 68°
2026-05-06 03:37 -22.91871 -43.51670 29399 ft 508 kts 68°
2026-05-06 03:37 -22.90470 -43.48145 29593 ft 509 kts 68°
2026-05-06 03:38 -22.89067 -43.44606 29796 ft 510 kts 68°
2026-05-06 03:38 -22.87662 -43.41056 29941 ft 513 kts 68°
2026-05-06 03:38 -22.86255 -43.37497 30090 ft 514 kts 68°
2026-05-06 03:38 -22.84861 -43.33971 30277 ft 515 kts 68°
2026-05-06 03:39 -22.83465 -43.30395 30438 ft 516 kts 70°
2026-05-06 03:39 -22.82383 -43.26686 30563 ft 515 kts 79°
2026-05-06 03:39 -22.81832 -43.22859 30692 ft 513 kts 88°
2026-05-06 03:39 -22.81666 -43.18994 30835 ft 513 kts 91°
2026-05-06 03:40 -22.81611 -43.15123 30992 ft 514 kts 92°
2026-05-06 03:40 -22.81613 -43.11245 31123 ft 515 kts 93°
2026-05-06 03:40 -22.81636 -43.07353 31271 ft 516 kts 93°
2026-05-06 03:40 -22.81659 -43.03456 31410 ft 517 kts 93°
2026-05-06 03:41 -22.81673 -42.99559 31589 ft 517 kts 93°
2026-05-06 03:41 -22.81678 -42.95665 31800 ft 516 kts 93°
2026-05-06 03:41 -22.81675 -42.91775 31993 ft 516 kts 93°
2026-05-06 03:41 -22.81668 -42.87889 32168 ft 516 kts 93°
2026-05-06 03:42 -22.81658 -42.84052 32356 ft 515 kts 93°
2026-05-06 03:42 -22.81646 -42.80165 32530 ft 515 kts 93°
2026-05-06 03:42 -22.81633 -42.76286 32738 ft 514 kts 93°
2026-05-06 03:42 -22.81619 -42.72417 32945 ft 513 kts 93°
2026-05-06 03:43 -22.81604 -42.68543 33121 ft 513 kts 93°
2026-05-06 03:43 -22.81590 -42.64667 33270 ft 513 kts 93°
2026-05-06 03:43 -22.81577 -42.60799 33449 ft 512 kts 93°
2026-05-06 03:43 -22.81562 -42.56943 33631 ft 512 kts 93°
2026-05-06 03:44 -22.81544 -42.53089 33834 ft 511 kts 93°
2026-05-06 03:44 -22.81525 -42.49230 33983 ft 511 kts 93°
2026-05-06 03:44 -22.81504 -42.45380 34137 ft 511 kts 93°
2026-05-06 03:44 -22.81484 -42.41583 34288 ft 510 kts 93°
2026-05-06 03:45 -22.81462 -42.37731 34431 ft 510 kts 93°
2026-05-06 03:45 -22.81440 -42.33883 34590 ft 509 kts 93°
2026-05-06 03:45 -22.81417 -42.30049 34718 ft 509 kts 93°
2026-05-06 03:45 -22.81393 -42.26208 34835 ft 509 kts 93°
2026-05-06 03:46 -22.81368 -42.22375 34947 ft 509 kts 93°
2026-05-06 03:46 -22.81343 -42.18537 35068 ft 509 kts 92°
2026-05-06 03:46 -22.81315 -42.14700 35175 ft 510 kts 92°
2026-05-06 03:46 -22.81049 -42.10855 35188 ft 515 kts 84°
2026-05-06 03:47 -22.79116 -42.03312 35190 ft 522 kts 72°
2026-05-06 03:47 -22.76564 -41.95992 35193 ft 522 kts 70°
2026-05-06 03:48 -22.73896 -41.88672 35192 ft 521 kts 70°
2026-05-06 03:48 -22.71249 -41.81360 35195 ft 521 kts 71°
2026-05-06 03:49 -22.68623 -41.74038 35204 ft 521 kts 71°
2026-05-06 03:49 -22.66004 -41.66721 35197 ft 520 kts 71°
2026-05-06 03:50 -22.63400 -41.59455 35200 ft 520 kts 71°
2026-05-06 03:50 -22.60777 -41.52150 35201 ft 520 kts 71°
2026-05-06 03:51 -22.57995 -41.44918 35202 ft 522 kts 64°
2026-05-06 03:51 -22.54469 -41.38045 35198 ft 522 kts 61°
2026-05-06 03:52 -22.50795 -41.31259 35198 ft 522 kts 60°
2026-05-06 03:52 -22.47100 -41.24496 35202 ft 522 kts 60°
2026-05-06 03:53 -22.43439 -41.17776 35201 ft 522 kts 61°
2026-05-06 03:53 -22.39765 -41.11017 35197 ft 522 kts 61°
2026-05-06 03:54 -22.36087 -41.04255 35200 ft 521 kts 61°
2026-05-06 03:54 -22.32400 -40.97485 35201 ft 521 kts 61°
2026-05-06 03:55 -22.28745 -40.90782 35205 ft 521 kts 60°
2026-05-06 03:55 -22.25041 -40.83999 35197 ft 521 kts 60°
2026-05-06 03:56 -22.21383 -40.77310 35196 ft 520 kts 60°
2026-05-06 03:56 -22.17699 -40.70582 35197 ft 520 kts 60°
2026-05-06 03:57 -22.14015 -40.63861 35196 ft 519 kts 60°
2026-05-06 03:57 -22.10330 -40.57147 35199 ft 519 kts 60°
2026-05-06 03:58 -22.06670 -40.50487 35191 ft 519 kts 60°
2026-05-06 03:58 -22.02986 -40.43793 35199 ft 519 kts 60°
2026-05-06 03:59 -21.99306 -40.37113 35198 ft 518 kts 60°
2026-05-06 03:59 -21.95628 -40.30446 35197 ft 518 kts 60°
2026-05-06 04:00 -21.91945 -40.23779 35198 ft 518 kts 60°
2026-05-06 04:00 -21.88264 -40.17123 35198 ft 517 kts 60°
2026-05-06 04:01 -21.84583 -40.10475 35192 ft 517 kts 59°
2026-05-06 04:01 -21.80899 -40.03831 35185 ft 516 kts 59°
2026-05-06 04:02 -21.77217 -39.97197 35189 ft 515 kts 59°
2026-05-06 04:02 -21.73542 -39.90584 35185 ft 515 kts 59°
2026-05-06 04:03 -21.69887 -39.84016 35188 ft 515 kts 59°
2026-05-06 04:03 -21.66206 -39.77409 35188 ft 515 kts 59°
2026-05-06 04:04 -21.62523 -39.70806 35187 ft 514 kts 59°
2026-05-06 04:04 -21.58834 -39.64202 35186 ft 514 kts 59°
2026-05-06 04:05 -21.55158 -39.57628 35188 ft 514 kts 59°
2026-05-06 04:05 -21.51501 -39.51094 35188 ft 513 kts 59°
2026-05-06 04:06 -21.47815 -39.44519 35185 ft 513 kts 59°
2026-05-06 04:06 -21.44133 -39.37958 35185 ft 513 kts 59°
2026-05-06 04:07 -21.40447 -39.31398 35173 ft 512 kts 58°
2026-05-06 04:07 -21.36767 -39.24855 35181 ft 512 kts 58°
2026-05-06 04:08 -21.33600 -39.18076 35183 ft 512 kts 65°
2026-05-06 04:08 -21.30746 -39.11076 35186 ft 512 kts 66°
2026-05-06 04:09 -21.27948 -39.04043 35180 ft 511 kts 66°
2026-05-06 04:09 -21.25153 -38.97040 35182 ft 511 kts 66°
2026-05-06 04:10 -21.22344 -38.90043 35182 ft 511 kts 66°
2026-05-06 04:10 -21.19526 -38.83049 35182 ft 510 kts 66°
2026-05-06 04:11 -21.16727 -38.76113 35177 ft 510 kts 66°
2026-05-06 04:11 -21.13902 -38.69122 35177 ft 510 kts 66°
2026-05-06 04:12 -21.11074 -38.62133 35174 ft 510 kts 66°
2026-05-06 04:12 -21.08270 -38.55210 35174 ft 510 kts 66°
2026-05-06 04:13 -21.05444 -38.48244 35178 ft 510 kts 66°
2026-05-06 04:13 -21.02610 -38.41268 35175 ft 509 kts 66°
2026-05-06 04:14 -21.00258 -38.35486 35174 ft 509 kts 66°
2026-05-06 04:14 -20.96966 -38.27404 35173 ft 509 kts 66°
2026-05-06 04:15 -20.94134 -38.20461 35170 ft 509 kts 66°
2026-05-06 04:15 -20.91761 -38.14651 35166 ft 509 kts 66°
2026-05-06 04:16 -20.88939 -38.07752 35168 ft 509 kts 65°
2026-05-06 04:16 -20.86099 -38.00815 35167 ft 509 kts 65°
2026-05-06 04:17 -20.83252 -37.93874 35167 ft 509 kts 65°
2026-05-06 04:17 -20.80406 -37.86942 35167 ft 509 kts 65°
2026-05-06 04:18 -20.77559 -37.80019 35168 ft 509 kts 65°
2026-05-06 04:18 -20.74707 -37.73093 35167 ft 509 kts 65°
2026-05-06 04:19 -20.71852 -37.66168 35164 ft 509 kts 65°
2026-05-06 04:19 -20.69013 -37.59290 35166 ft 509 kts 65°
2026-05-06 04:20 -20.66147 -37.52357 35163 ft 509 kts 65°
2026-05-06 04:20 -20.63281 -37.45432 35166 ft 509 kts 65°
2026-05-06 04:21 -20.60414 -37.38516 35165 ft 509 kts 65°
2026-05-06 04:21 -20.57542 -37.31596 35165 ft 509 kts 65°
2026-05-06 04:22 -20.54686 -37.24726 35163 ft 509 kts 65°
2026-05-06 04:23 -20.50373 -37.14365 35164 ft 509 kts 65°
2026-05-06 04:23 -20.47493 -37.07459 35164 ft 509 kts 65°
2026-05-06 04:24 -20.44613 -37.00561 35166 ft 509 kts 65°
2026-05-06 04:24 -20.41731 -36.93668 35162 ft 509 kts 65°
2026-05-06 04:25 -20.38845 -36.86775 35164 ft 509 kts 65°
2026-05-06 04:25 -20.35954 -36.79878 35164 ft 509 kts 65°
2026-05-06 04:26 -20.33064 -36.72993 35168 ft 509 kts 65°
2026-05-06 04:26 -20.30184 -36.66140 35162 ft 509 kts 65°
2026-05-06 04:27 -20.27289 -36.59261 35160 ft 509 kts 65°
2026-05-06 04:27 -20.24382 -36.52361 35161 ft 508 kts 64°
2026-05-06 04:28 -20.21499 -36.45529 35157 ft 508 kts 64°
2026-05-06 04:28 -20.18596 -36.38656 35159 ft 508 kts 64°
2026-05-06 04:29 -20.15686 -36.31779 35160 ft 509 kts 64°
2026-05-06 04:29 -20.12794 -36.24951 35180 ft 508 kts 64°
2026-05-06 04:30 -20.09888 -36.18098 35162 ft 507 kts 64°
2026-05-06 04:30 -20.06982 -36.11256 35159 ft 508 kts 64°
2026-05-06 04:31 -20.04071 -36.04408 35161 ft 508 kts 64°
2026-05-06 04:31 -20.01158 -35.97567 35156 ft 508 kts 64°
2026-05-06 04:32 -19.98243 -35.90728 35159 ft 508 kts 64°
2026-05-06 04:32 -19.95322 -35.83886 35156 ft 508 kts 64°
2026-05-06 04:33 -19.92400 -35.77047 35155 ft 508 kts 64°
2026-05-06 04:33 -19.89467 -35.70195 35154 ft 509 kts 64°
2026-05-06 04:34 -19.86551 -35.63389 35152 ft 510 kts 64°
2026-05-06 04:34 -19.83609 -35.56529 35154 ft 510 kts 63°
2026-05-06 04:35 -19.80667 -35.49680 35162 ft 510 kts 63°
2026-05-06 04:35 -19.77714 -35.42815 35157 ft 511 kts 63°
2026-05-06 04:36 -19.74760 -35.35953 35157 ft 511 kts 63°
2026-05-06 04:36 -19.71814 -35.29120 35154 ft 512 kts 63°
2026-05-06 04:37 -19.68849 -35.22253 35156 ft 512 kts 63°
2026-05-06 04:37 -19.65876 -35.15372 35152 ft 513 kts 63°
2026-05-06 04:38 -19.62944 -35.08460 35152 ft 513 kts 64°
2026-05-06 04:38 -19.60030 -35.01529 35154 ft 513 kts 64°
2026-05-06 04:39 -19.57131 -34.94656 35151 ft 514 kts 64°
2026-05-06 04:39 -19.54195 -34.87725 35150 ft 515 kts 63°
2026-05-06 04:40 -19.51250 -34.80786 35149 ft 516 kts 63°
2026-05-06 04:40 -19.48301 -34.73847 35150 ft 516 kts 63°
2026-05-06 04:41 -19.45347 -34.66906 35145 ft 517 kts 63°
2026-05-06 04:41 -19.42386 -34.59955 35143 ft 517 kts 63°
2026-05-06 04:42 -19.39418 -34.52998 35144 ft 518 kts 63°
2026-05-06 04:42 -19.36454 -34.46057 35138 ft 518 kts 63°
2026-05-06 04:43 -19.33481 -34.39105 35141 ft 519 kts 63°
2026-05-06 04:43 -19.30502 -34.32147 35134 ft 519 kts 63°
2026-05-06 04:44 -19.27540 -34.25239 35151 ft 519 kts 63°
2026-05-06 04:44 -19.24553 -34.18279 35149 ft 519 kts 63°
2026-05-06 04:45 -19.21563 -34.11322 35133 ft 520 kts 63°
2026-05-06 04:45 -19.18562 -34.04349 35136 ft 520 kts 63°
2026-05-06 04:46 -19.15564 -33.97390 35144 ft 520 kts 63°
2026-05-06 04:46 -19.12559 -33.90424 35135 ft 520 kts 62°
2026-05-06 04:47 -19.09575 -33.83514 35129 ft 520 kts 62°
2026-05-06 04:47 -19.06566 -33.76557 35133 ft 520 kts 62°
2026-05-06 04:48 -19.03557 -33.69607 35134 ft 520 kts 62°
2026-05-06 04:48 -19.00543 -33.62653 35135 ft 520 kts 62°
2026-05-06 04:49 -18.97527 -33.55706 35133 ft 520 kts 62°
2026-05-06 04:49 -18.94506 -33.48753 35134 ft 520 kts 62°
2026-05-06 04:50 -18.91484 -33.41807 35131 ft 520 kts 62°
2026-05-06 04:50 -18.88475 -33.34899 35131 ft 520 kts 62°
2026-05-06 04:51 -18.85444 -33.27951 35132 ft 520 kts 62°
2026-05-06 04:51 -18.82410 -33.21002 35131 ft 520 kts 62°
2026-05-06 04:52 -18.79378 -33.14067 35131 ft 520 kts 62°
2026-05-06 04:52 -18.76362 -33.07176 35131 ft 520 kts 62°
2026-05-06 04:53 -18.73322 -33.00241 35130 ft 520 kts 62°
2026-05-06 04:53 -18.70278 -32.93302 35134 ft 520 kts 62°
2026-05-06 04:54 -18.67247 -32.86402 35125 ft 520 kts 62°
2026-05-06 04:54 -18.64204 -32.79483 35131 ft 520 kts 62°
2026-05-06 04:55 -18.61157 -32.72565 35125 ft 520 kts 61°
2026-05-06 04:55 -18.58110 -32.65653 35126 ft 520 kts 61°
2026-05-06 04:56 -18.55058 -32.58739 35130 ft 520 kts 61°
2026-05-06 04:56 -18.52006 -32.51832 35132 ft 520 kts 61°
2026-05-06 04:57 -18.48947 -32.44918 35131 ft 520 kts 61°
2026-05-06 04:57 -18.45911 -32.38065 35129 ft 520 kts 61°
2026-05-06 04:58 -18.42845 -32.31151 35127 ft 520 kts 61°
2026-05-06 04:58 -18.39784 -32.24256 35117 ft 519 kts 61°
2026-05-06 04:59 -18.36722 -32.17368 35125 ft 519 kts 61°
2026-05-06 04:59 -18.33656 -32.10477 35125 ft 519 kts 61°
2026-05-06 05:00 -18.30609 -32.03638 35121 ft 519 kts 60°
2026-05-06 05:00 -18.27537 -31.96752 35127 ft 519 kts 60°
2026-05-06 05:01 -18.24466 -31.89874 35125 ft 519 kts 60°
2026-05-06 05:01 -18.21906 -31.84148 35124 ft 519 kts 60°
2026-05-06 05:02 -18.18831 -31.77278 35113 ft 519 kts 60°
2026-05-06 05:02 -18.15246 -31.69277 35122 ft 520 kts 60°
2026-05-06 05:03 -18.12677 -31.63551 35121 ft 520 kts 60°
2026-05-06 05:03 -18.09587 -31.56669 35117 ft 520 kts 60°
2026-05-06 05:04 -18.06496 -31.49793 35118 ft 520 kts 60°
2026-05-06 05:04 -18.03401 -31.42917 35118 ft 520 kts 60°
2026-05-06 05:05 -18.00301 -31.36036 35116 ft 521 kts 60°
2026-05-06 05:05 -17.97214 -31.29193 35110 ft 521 kts 60°
2026-05-06 05:06 -17.94111 -31.22322 35112 ft 521 kts 60°
2026-05-06 05:06 -17.91000 -31.15442 35113 ft 521 kts 60°
2026-05-06 05:07 -17.87906 -31.08606 35113 ft 521 kts 60°
2026-05-06 05:07 -17.84791 -31.01731 35113 ft 521 kts 60°
2026-05-06 05:08 -17.81673 -30.94859 35108 ft 521 kts 60°
2026-05-06 05:08 -17.78552 -30.87986 35112 ft 521 kts 60°
2026-05-06 05:09 -17.75448 -30.81158 35108 ft 521 kts 59°
2026-05-06 05:09 -17.72324 -30.74295 35115 ft 521 kts 59°
2026-05-06 05:10 -17.69196 -30.67432 35108 ft 521 kts 59°
2026-05-06 05:10 -17.66069 -30.60577 35111 ft 521 kts 59°
2026-05-06 05:11 -17.62939 -30.53723 35111 ft 521 kts 59°
2026-05-06 05:11 -17.59806 -30.46871 35111 ft 521 kts 59°
2026-05-06 05:12 -17.56668 -30.40014 35106 ft 521 kts 59°
2026-05-06 05:12 -17.53530 -30.33165 35108 ft 521 kts 59°
2026-05-06 05:13 -17.50401 -30.26343 35105 ft 522 kts 59°
2026-05-06 05:13 -17.47252 -30.19487 35105 ft 522 kts 59°
2026-05-06 05:14 -17.44105 -30.12639 35109 ft 521 kts 59°
2026-05-06 05:14 -17.40954 -30.05793 35105 ft 522 kts 59°
2026-05-06 05:15 -17.37801 -29.98949 35102 ft 522 kts 59°
2026-05-06 05:15 -17.34653 -29.92099 35105 ft 522 kts 59°
2026-05-06 05:16 -17.31522 -29.85281 35100 ft 522 kts 59°
2026-05-06 05:16 -17.28370 -29.78427 35102 ft 522 kts 59°
2026-05-06 05:17 -17.25212 -29.71571 35105 ft 523 kts 59°
2026-05-06 05:17 -17.22053 -29.64722 35100 ft 522 kts 59°
2026-05-06 05:18 -17.18893 -29.57878 35098 ft 522 kts 59°
2026-05-06 05:18 -17.15750 -29.51078 35100 ft 522 kts 59°
2026-05-06 05:19 -17.12581 -29.44229 35097 ft 522 kts 59°
2026-05-06 05:19 -17.09414 -29.37392 35096 ft 523 kts 59°
2026-05-06 05:20 -17.06242 -29.30550 35097 ft 522 kts 59°
2026-05-06 05:20 -17.03073 -29.23722 35098 ft 522 kts 59°
2026-05-06 05:21 -16.99900 -29.16893 35099 ft 522 kts 59°
2026-05-06 05:21 -16.96723 -29.10063 35096 ft 522 kts 59°
2026-05-06 05:22 -16.93544 -29.03236 35094 ft 522 kts 59°
2026-05-06 05:22 -16.90382 -28.96452 35098 ft 522 kts 59°
2026-05-06 05:23 -16.87201 -28.89634 35090 ft 523 kts 59°
2026-05-06 05:23 -16.82417 -28.79395 35093 ft 522 kts 59°
2026-05-06 05:24 -16.79227 -28.72576 35094 ft 522 kts 59°
2026-05-06 05:24 -16.76035 -28.65759 35087 ft 522 kts 59°
2026-05-06 05:25 -16.72858 -28.58982 35091 ft 522 kts 59°
2026-05-06 05:25 -16.69664 -28.52176 35091 ft 522 kts 58°
2026-05-06 05:26 -16.66467 -28.45371 35089 ft 522 kts 58°
2026-05-06 05:26 -16.63265 -28.38560 35088 ft 522 kts 58°
2026-05-06 05:27 -16.60063 -28.31758 35086 ft 522 kts 58°
2026-05-06 05:27 -16.56860 -28.24962 35089 ft 522 kts 58°
2026-05-06 05:28 -16.53653 -28.18163 35089 ft 522 kts 58°
2026-05-06 05:28 -16.50465 -28.11409 35088 ft 522 kts 58°
2026-05-06 05:29 -16.47255 -28.04618 35089 ft 522 kts 58°
2026-05-06 05:29 -16.44041 -27.97825 35088 ft 522 kts 58°
2026-05-06 05:30 -16.40824 -27.91033 35076 ft 522 kts 58°
2026-05-06 05:30 -16.37626 -27.84286 35086 ft 522 kts 58°
2026-05-06 05:31 -16.34415 -27.77519 35083 ft 521 kts 58°
2026-05-06 05:31 -16.31200 -27.70752 35083 ft 521 kts 58°
2026-05-06 05:32 -16.27980 -27.63979 35083 ft 521 kts 58°
2026-05-06 05:32 -16.24756 -27.57206 35083 ft 521 kts 58°
2026-05-06 05:33 -16.21553 -27.50484 35080 ft 521 kts 58°
2026-05-06 05:33 -16.18327 -27.43719 35080 ft 521 kts 58°
2026-05-06 05:34 -16.15103 -27.36966 35079 ft 520 kts 58°
2026-05-06 05:34 -16.11889 -27.30237 35078 ft 519 kts 58°
2026-05-06 05:35 -16.08672 -27.23513 35078 ft 519 kts 58°
2026-05-06 05:35 -16.05451 -27.16788 35072 ft 519 kts 58°
2026-05-06 05:36 -16.02252 -27.10113 35077 ft 519 kts 58°
2026-05-06 05:36 -15.99030 -27.03396 35078 ft 519 kts 58°
2026-05-06 05:37 -15.95802 -26.96674 35078 ft 519 kts 58°
2026-05-06 05:37 -15.92580 -26.89970 35065 ft 519 kts 58°
2026-05-06 05:38 -15.89349 -26.83254 35075 ft 518 kts 58°
2026-05-06 05:38 -15.86150 -26.76611 35075 ft 517 kts 58°
2026-05-06 05:39 -15.82924 -26.69920 35075 ft 517 kts 58°
2026-05-06 05:39 -15.79702 -26.63242 35072 ft 517 kts 58°
2026-05-06 05:40 -15.76471 -26.56552 35073 ft 517 kts 58°
2026-05-06 05:40 -15.73242 -26.49873 35072 ft 518 kts 58°
2026-05-06 05:41 -15.70008 -26.43189 35067 ft 518 kts 58°
2026-05-06 05:41 -15.66776 -26.36515 35060 ft 517 kts 58°
2026-05-06 05:42 -15.63568 -26.29896 35066 ft 516 kts 58°
2026-05-06 05:42 -15.60335 -26.23233 35065 ft 516 kts 58°
2026-05-06 05:43 -15.57100 -26.16575 35063 ft 517 kts 58°
2026-05-06 05:43 -15.53863 -26.09917 35063 ft 517 kts 58°
2026-05-06 05:44 -15.50619 -26.03250 35062 ft 517 kts 58°
2026-05-06 05:44 -15.47394 -25.96629 35064 ft 517 kts 58°
2026-05-06 05:45 -15.44153 -25.89980 35061 ft 517 kts 58°
2026-05-06 05:45 -15.40905 -25.83325 35060 ft 517 kts 58°
2026-05-06 05:46 -15.37662 -25.76683 35061 ft 516 kts 58°
2026-05-06 05:46 -15.34420 -25.70050 35061 ft 515 kts 58°
2026-05-06 05:47 -15.31198 -25.63465 35051 ft 515 kts 58°
2026-05-06 05:47 -15.27954 -25.56844 35056 ft 516 kts 58°
2026-05-06 05:48 -15.24702 -25.50210 35058 ft 516 kts 58°
2026-05-06 05:48 -15.21451 -25.43583 35053 ft 516 kts 58°
2026-05-06 05:49 -15.18200 -25.36962 35053 ft 516 kts 58°
2026-05-06 05:49 -15.14948 -25.30345 35053 ft 515 kts 58°
2026-05-06 05:50 -15.12244 -25.24848 35053 ft 515 kts 58°
2026-05-06 05:50 -15.08464 -25.17171 35050 ft 515 kts 58°
2026-05-06 05:51 -15.05736 -25.11637 35050 ft 515 kts 58°
2026-05-06 05:51 -15.02502 -25.05079 35050 ft 515 kts 58°
2026-05-06 05:52 -14.99240 -24.98476 35047 ft 515 kts 58°
2026-05-06 05:52 -14.95888 -24.91928 35048 ft 515 kts 57°
2026-05-06 05:53 -14.92491 -24.85409 35045 ft 515 kts 57°
2026-05-06 05:53 -14.89103 -24.78886 35043 ft 515 kts 57°
2026-05-06 05:54 -14.85742 -24.72392 35048 ft 515 kts 57°
2026-05-06 05:54 -14.82365 -24.65862 35046 ft 515 kts 57°
2026-05-06 05:55 -14.78983 -24.59328 35044 ft 515 kts 57°
2026-05-06 05:55 -14.75600 -24.52799 35045 ft 515 kts 57°
2026-05-06 05:56 -14.72210 -24.46264 35042 ft 515 kts 57°
2026-05-06 05:56 -14.68842 -24.39776 35040 ft 515 kts 57°
2026-05-06 05:57 -14.65449 -24.33245 35039 ft 516 kts 57°
2026-05-06 05:57 -14.62050 -24.26708 35039 ft 515 kts 57°
2026-05-06 05:58 -14.58676 -24.20223 35039 ft 515 kts 57°
2026-05-06 05:58 -14.55286 -24.13715 35040 ft 515 kts 57°
2026-05-06 05:59 -14.51892 -24.07204 35041 ft 515 kts 57°
2026-05-06 05:59 -14.48492 -24.00687 35041 ft 515 kts 57°
2026-05-06 06:00 -14.45092 -23.94177 35037 ft 515 kts 57°
2026-05-06 06:00 -14.41694 -23.87674 35049 ft 515 kts 57°
2026-05-06 06:01 -14.38289 -23.81165 35036 ft 515 kts 57°
2026-05-06 06:01 -14.34909 -23.74707 35028 ft 515 kts 57°
2026-05-06 06:02 -14.31506 -23.68211 35035 ft 514 kts 57°
2026-05-06 06:02 -14.28100 -23.61714 35030 ft 515 kts 57°
2026-05-06 06:03 -14.24689 -23.55214 35037 ft 515 kts 57°
2026-05-06 06:03 -14.21301 -23.48763 35039 ft 515 kts 57°
2026-05-06 06:04 -14.17889 -23.42272 35032 ft 515 kts 57°
2026-05-06 06:04 -14.14473 -23.35779 35034 ft 515 kts 57°
2026-05-06 06:05 -14.11048 -23.29273 35031 ft 516 kts 57°
2026-05-06 06:05 -14.07630 -23.22786 35037 ft 516 kts 57°
2026-05-06 06:06 -14.04200 -23.16281 35037 ft 516 kts 57°
2026-05-06 06:06 -14.00796 -23.09829 35031 ft 516 kts 57°
2026-05-06 06:07 -13.97364 -23.03333 35033 ft 516 kts 57°
2026-05-06 06:07 -13.93927 -22.96830 35030 ft 516 kts 57°
2026-05-06 06:08 -13.90489 -22.90331 35035 ft 516 kts 57°
2026-05-06 06:08 -13.87051 -22.83837 35032 ft 516 kts 57°
2026-05-06 06:09 -13.83633 -22.77385 35033 ft 516 kts 57°
2026-05-06 06:09 -13.80188 -22.70890 35030 ft 517 kts 57°
2026-05-06 06:10 -13.76739 -22.64390 35034 ft 517 kts 57°
2026-05-06 06:10 -13.73295 -22.57906 35036 ft 517 kts 57°
2026-05-06 06:11 -13.69845 -22.51415 35030 ft 516 kts 57°
2026-05-06 06:11 -13.66419 -22.44974 35026 ft 516 kts 57°
2026-05-06 06:12 -13.62961 -22.38478 35033 ft 517 kts 57°
2026-05-06 06:12 -13.59504 -22.31991 35031 ft 518 kts 57°
2026-05-06 06:13 -13.56035 -22.25484 35031 ft 518 kts 57°
2026-05-06 06:13 -13.52594 -22.19035 35024 ft 518 kts 57°
2026-05-06 06:14 -13.49128 -22.12543 35029 ft 517 kts 57°
2026-05-06 06:14 -13.45665 -22.06064 35022 ft 517 kts 57°
2026-05-06 06:15 -13.42203 -21.99590 35020 ft 517 kts 57°
2026-05-06 06:15 -13.38740 -21.93120 35024 ft 517 kts 57°
2026-05-06 06:16 -13.35276 -21.86653 35021 ft 516 kts 57°
2026-05-06 06:16 -13.31814 -21.80194 35020 ft 517 kts 57°
2026-05-06 06:17 -13.28365 -21.73767 35020 ft 517 kts 57°
2026-05-06 06:17 -13.24883 -21.67281 35023 ft 518 kts 57°
2026-05-06 06:18 -13.21405 -21.60806 35018 ft 517 kts 57°
2026-05-06 06:18 -13.17932 -21.54347 35020 ft 516 kts 57°
2026-05-06 06:19 -13.14482 -21.47934 35017 ft 516 kts 57°
2026-05-06 06:19 -13.11004 -21.41476 35018 ft 517 kts 57°
2026-05-06 06:20 -13.07524 -21.35018 35018 ft 517 kts 57°
2026-05-06 06:20 -13.04040 -21.28558 35018 ft 517 kts 57°
2026-05-06 06:21 -13.00570 -21.22128 35017 ft 517 kts 57°
2026-05-06 06:21 -12.97086 -21.15676 35018 ft 517 kts 57°
2026-05-06 06:22 -12.93601 -21.09229 35018 ft 517 kts 57°
2026-05-06 06:22 -12.90107 -21.02768 35018 ft 517 kts 57°
2026-05-06 06:23 -12.86630 -20.96344 35014 ft 517 kts 57°
2026-05-06 06:23 -12.83135 -20.89892 35016 ft 517 kts 57°
2026-05-06 06:24 -12.79643 -20.83449 35018 ft 517 kts 57°
2026-05-06 06:24 -12.76146 -20.77003 35015 ft 518 kts 57°
2026-05-06 06:25 -12.72640 -20.70545 35014 ft 518 kts 57°
2026-05-06 06:26 -12.67512 -20.60829 35016 ft 519 kts 59°
2026-05-06 06:26 -12.64219 -20.54248 35011 ft 519 kts 59°
2026-05-06 06:27 -12.60918 -20.47679 35015 ft 518 kts 59°
2026-05-06 06:27 -12.57597 -20.41131 35014 ft 519 kts 59°
2026-05-06 06:28 -12.54258 -20.34575 35013 ft 519 kts 59°
2026-05-06 06:28 -12.50914 -20.28014 35010 ft 519 kts 59°
2026-05-06 06:29 -12.47574 -20.21465 35010 ft 519 kts 59°
2026-05-06 06:29 -12.44249 -20.14948 35009 ft 519 kts 59°
2026-05-06 06:30 -12.40900 -20.08389 35012 ft 520 kts 59°
2026-05-06 06:30 -12.37548 -20.01829 35012 ft 520 kts 59°
2026-05-06 06:31 -12.34187 -19.95256 35009 ft 520 kts 59°
2026-05-06 06:31 -12.30860 -19.88752 35011 ft 519 kts 59°
2026-05-06 06:32 -12.27512 -19.82213 35006 ft 519 kts 59°
2026-05-06 06:32 -12.24158 -19.75669 35007 ft 519 kts 59°
2026-05-06 06:33 -12.20799 -19.69119 35007 ft 520 kts 59°
2026-05-06 06:33 -12.17438 -19.62570 35003 ft 520 kts 59°
2026-05-06 06:34 -12.14098 -19.56065 35004 ft 520 kts 59°
2026-05-06 06:34 -12.10736 -19.49522 35006 ft 520 kts 59°
2026-05-06 06:35 -12.07370 -19.42978 35005 ft 520 kts 60°
2026-05-06 06:35 -12.04001 -19.36430 35000 ft 519 kts 60°
2026-05-06 06:36 -12.00636 -19.29896 35011 ft 519 kts 60°
2026-05-06 06:36 -11.97297 -19.23417 35000 ft 518 kts 60°
2026-05-06 06:37 -11.93932 -19.16893 34997 ft 519 kts 60°
2026-05-06 06:37 -11.90568 -19.10373 35011 ft 519 kts 60°
2026-05-06 06:38 -11.87198 -19.03848 35012 ft 520 kts 60°
2026-05-06 06:38 -11.83842 -18.97355 34998 ft 520 kts 60°
2026-05-06 06:39 -11.80466 -18.90826 34993 ft 520 kts 60°
2026-05-06 06:39 -11.77087 -18.84296 35009 ft 520 kts 60°
2026-05-06 06:40 -11.73708 -18.77770 34988 ft 519 kts 60°
2026-05-06 06:40 -11.70905 -18.72359 35004 ft 518 kts 60°
2026-05-06 06:41 -11.67535 -18.65860 34999 ft 517 kts 60°
2026-05-06 06:41 -11.64168 -18.59370 35003 ft 517 kts 60°
2026-05-06 06:42 -11.60798 -18.52880 35001 ft 517 kts 60°
2026-05-06 06:42 -11.57450 -18.46436 34999 ft 517 kts 60°
2026-05-06 06:43 -11.54079 -18.39952 34998 ft 518 kts 60°
2026-05-06 06:43 -11.50697 -18.33450 35000 ft 518 kts 60°
2026-05-06 06:44 -11.47317 -18.26959 35001 ft 519 kts 60°
2026-05-06 06:44 -11.43929 -18.20453 34995 ft 518 kts 60°
2026-05-06 06:45 -11.40555 -18.13980 34995 ft 517 kts 60°
2026-05-06 06:45 -11.37183 -18.07516 34994 ft 516 kts 60°
2026-05-06 06:46 -11.33825 -18.01083 34999 ft 518 kts 60°
2026-05-06 06:46 -11.30441 -17.94604 35000 ft 518 kts 60°
2026-05-06 06:47 -11.27049 -17.88113 34999 ft 518 kts 60°
2026-05-06 06:47 -11.23676 -17.81664 35000 ft 518 kts 60°
2026-05-06 06:48 -11.20285 -17.75184 34995 ft 518 kts 60°
2026-05-06 06:48 -11.16894 -17.68707 34997 ft 519 kts 60°
2026-05-06 06:49 -11.13491 -17.62214 34998 ft 519 kts 60°
2026-05-06 06:49 -11.10089 -17.55725 34994 ft 519 kts 60°
2026-05-06 06:50 -11.06689 -17.49244 34991 ft 519 kts 60°
2026-05-06 06:50 -11.03303 -17.42795 34991 ft 519 kts 60°
2026-05-06 06:51 -10.99897 -17.36312 34994 ft 519 kts 60°
2026-05-06 06:51 -10.96485 -17.29821 34992 ft 520 kts 60°
2026-05-06 06:52 -10.93069 -17.23326 34987 ft 520 kts 60°
2026-05-06 06:52 -10.89653 -17.16836 34993 ft 520 kts 60°
2026-05-06 06:53 -10.86257 -17.10387 34994 ft 520 kts 60°
2026-05-06 06:53 -10.82837 -17.03898 34991 ft 520 kts 60°
2026-05-06 06:54 -10.79414 -16.97406 34991 ft 520 kts 60°
2026-05-06 06:54 -10.75990 -16.90916 34990 ft 520 kts 60°
2026-05-06 06:55 -10.72561 -16.84422 34987 ft 520 kts 60°
2026-05-06 06:55 -10.69160 -16.77984 34991 ft 520 kts 60°
2026-05-06 06:56 -10.65732 -16.71499 34995 ft 520 kts 60°
2026-05-06 06:56 -10.62298 -16.65006 34993 ft 521 kts 60°
2026-05-06 06:57 -10.58858 -16.58507 34992 ft 521 kts 60°
2026-05-06 06:57 -10.55441 -16.52055 34993 ft 521 kts 60°
2026-05-06 06:58 -10.52006 -16.45572 34995 ft 521 kts 60°
2026-05-06 06:58 -10.48563 -16.39079 34993 ft 521 kts 60°
2026-05-06 06:59 -10.45122 -16.32593 34990 ft 520 kts 60°
2026-05-06 06:59 -10.41699 -16.26146 34990 ft 521 kts 60°
2026-05-06 07:00 -10.38255 -16.19662 34991 ft 521 kts 60°
2026-05-06 07:00 -10.34800 -16.13192 34993 ft 521 kts 60°
2026-05-06 07:01 -10.31341 -16.06733 34992 ft 521 kts 60°
2026-05-06 07:01 -10.27874 -16.00259 34990 ft 521 kts 60°
2026-05-06 07:02 -10.24412 -15.93796 34991 ft 521 kts 60°
2026-05-06 07:02 -10.20966 -15.87365 34991 ft 522 kts 60°
2026-05-06 07:03 -10.17493 -15.80885 34984 ft 522 kts 60°
2026-05-06 07:03 -10.14025 -15.74421 34990 ft 521 kts 60°
2026-05-06 07:04 -10.10559 -15.67963 34992 ft 520 kts 60°
2026-05-06 07:04 -10.07111 -15.61542 34990 ft 521 kts 60°
2026-05-06 07:05 -10.03640 -15.55082 34986 ft 522 kts 60°
2026-05-06 07:05 -10.00152 -15.48594 34991 ft 522 kts 60°
2026-05-06 07:06 -9.96693 -15.42164 34992 ft 522 kts 60°
2026-05-06 07:06 -9.93216 -15.35705 34993 ft 522 kts 60°
2026-05-06 07:07 -9.89734 -15.29240 34994 ft 522 kts 60°
2026-05-06 07:07 -9.86254 -15.22782 34991 ft 522 kts 60°
2026-05-06 07:08 -9.82770 -15.16320 34990 ft 521 kts 60°
2026-05-06 07:08 -9.79313 -15.09912 34993 ft 520 kts 60°
2026-05-06 07:09 -9.75833 -15.03465 34988 ft 520 kts 60°
2026-05-06 07:09 -9.72361 -14.97036 34986 ft 520 kts 60°
2026-05-06 07:10 -9.68902 -14.90635 34988 ft 520 kts 60°
2026-05-06 07:10 -9.65420 -14.84195 34990 ft 521 kts 60°
2026-05-06 07:11 -9.61930 -14.77744 34995 ft 521 kts 60°
2026-05-06 07:11 -9.58444 -14.71303 34991 ft 521 kts 60°
2026-05-06 07:12 -9.54976 -14.64899 34991 ft 521 kts 60°
2026-05-06 07:12 -9.51487 -14.58461 34990 ft 521 kts 60°
2026-05-06 07:13 -9.48002 -14.52032 34990 ft 521 kts 60°
2026-05-06 07:13 -9.44505 -14.45588 34991 ft 521 kts 59°
2026-05-06 07:14 -9.41014 -14.39154 34989 ft 521 kts 59°
2026-05-06 07:14 -9.37511 -14.32704 34990 ft 521 kts 60°
2026-05-06 07:15 -9.34038 -14.26312 34992 ft 521 kts 60°
2026-05-06 07:15 -9.30541 -14.19879 34991 ft 521 kts 60°
2026-05-06 07:16 -9.27031 -14.13426 34991 ft 522 kts 60°
2026-05-06 07:16 -9.23523 -14.06980 34989 ft 522 kts 60°
2026-05-06 07:17 -9.20035 -14.00573 34990 ft 522 kts 60°
2026-05-06 07:17 -9.16522 -13.94123 34990 ft 521 kts 60°
2026-05-06 07:18 -9.13021 -13.87699 34993 ft 521 kts 60°
2026-05-06 07:18 -9.09521 -13.81282 34991 ft 521 kts 60°
2026-05-06 07:19 -9.06016 -13.74858 34992 ft 521 kts 60°
2026-05-06 07:19 -9.02526 -13.68466 34991 ft 521 kts 60°
2026-05-06 07:20 -8.99016 -13.62039 34992 ft 521 kts 60°
2026-05-06 07:20 -8.95500 -13.55604 34990 ft 521 kts 60°
2026-05-06 07:21 -8.91990 -13.49184 34987 ft 521 kts 60°
2026-05-06 07:21 -8.88501 -13.42805 34991 ft 521 kts 60°
2026-05-06 07:22 -8.84984 -13.36379 34991 ft 521 kts 60°
2026-05-06 07:22 -8.81468 -13.29958 34991 ft 521 kts 60°
2026-05-06 07:23 -8.77961 -13.23556 34990 ft 520 kts 60°
2026-05-06 07:23 -8.74456 -13.17162 34990 ft 520 kts 59°
2026-05-06 07:24 -8.70969 -13.10802 35006 ft 520 kts 59°
2026-05-06 07:24 -8.69216 -13.07606 35251 ft 517 kts 60°
2026-05-06 07:24 -8.67487 -13.04441 35603 ft 513 kts 60°
2026-05-06 07:24 -8.65772 -13.01291 35887 ft 509 kts 60°
2026-05-06 07:25 -8.64064 -12.98154 36075 ft 509 kts 60°
2026-05-06 07:25 -8.62360 -12.95023 36307 ft 506 kts 60°
2026-05-06 07:25 -8.60663 -12.91908 36488 ft 505 kts 60°
2026-05-06 07:25 -8.58973 -12.88806 36737 ft 503 kts 59°
2026-05-06 07:26 -8.57285 -12.85713 36893 ft 502 kts 60°
2026-05-06 07:26 -8.53903 -12.79518 36990 ft 506 kts 59°
2026-05-06 07:27 -8.50514 -12.73314 36982 ft 508 kts 60°
2026-05-06 07:27 -8.47100 -12.67065 36987 ft 506 kts 59°
2026-05-06 07:28 -8.43704 -12.60851 36987 ft 505 kts 59°
2026-05-06 07:28 -8.39174 -12.52568 36992 ft 506 kts 60°
2026-05-06 07:29 -8.35770 -12.46346 36989 ft 505 kts 60°
2026-05-06 07:29 -8.31818 -12.39128 36991 ft 505 kts 60°
2026-05-06 07:30 -8.28983 -12.33953 36986 ft 507 kts 59°
2026-05-06 07:30 -8.25561 -12.27706 36989 ft 507 kts 59°
2026-05-06 07:31 -8.22143 -12.21472 36987 ft 507 kts 60°
2026-05-06 07:31 -8.18728 -12.15245 36993 ft 507 kts 60°
2026-05-06 07:32 -8.15307 -12.09010 36990 ft 507 kts 60°
2026-05-06 07:32 -8.11892 -12.02788 36987 ft 505 kts 60°
2026-05-06 07:33 -8.08500 -11.96611 36988 ft 507 kts 60°
2026-05-06 07:33 -8.05080 -11.90386 36988 ft 507 kts 60°
2026-05-06 07:34 -8.01653 -11.84152 36985 ft 507 kts 59°
2026-05-06 07:34 -7.98228 -11.77922 36982 ft 507 kts 59°
2026-05-06 07:35 -7.94820 -11.71728 36989 ft 507 kts 60°
2026-05-06 07:35 -7.91390 -11.65496 36989 ft 507 kts 60°
2026-05-06 07:36 -7.87963 -11.59272 36987 ft 508 kts 60°
2026-05-06 07:36 -7.84530 -11.53041 36986 ft 507 kts 60°
2026-05-06 07:37 -7.81122 -11.46857 36988 ft 507 kts 60°
2026-05-06 07:37 -7.77692 -11.40636 36986 ft 507 kts 59°
2026-05-06 07:38 -7.74259 -11.34411 36984 ft 507 kts 60°
2026-05-06 07:38 -7.70848 -11.28228 36984 ft 507 kts 59°
2026-05-06 07:39 -7.67410 -11.22002 36985 ft 508 kts 59°
2026-05-06 07:39 -7.63970 -11.15774 36986 ft 509 kts 59°
2026-05-06 07:40 -7.60524 -11.09535 36986 ft 509 kts 59°
2026-05-06 07:40 -7.57072 -11.03291 36986 ft 509 kts 59°
2026-05-06 07:41 -7.53648 -10.97098 36984 ft 508 kts 59°
2026-05-06 07:41 -7.50202 -10.90869 36985 ft 509 kts 59°
2026-05-06 07:42 -7.46751 -10.84634 36989 ft 509 kts 59°
2026-05-06 07:42 -7.43305 -10.78411 36987 ft 508 kts 59°
2026-05-06 07:43 -7.39858 -10.72187 36985 ft 508 kts 59°
2026-05-06 07:43 -7.36412 -10.65968 36988 ft 508 kts 60°
2026-05-06 07:44 -7.32972 -10.59762 36989 ft 508 kts 60°
2026-05-06 07:44 -7.29547 -10.53585 36988 ft 508 kts 59°
2026-05-06 07:45 -7.26101 -10.47373 36987 ft 507 kts 59°
2026-05-06 07:45 -7.22654 -10.41162 36990 ft 507 kts 59°
2026-05-06 07:46 -7.19201 -10.34944 36989 ft 507 kts 59°
2026-05-06 07:46 -7.15778 -10.28781 36988 ft 507 kts 59°
2026-05-06 07:47 -7.12331 -10.22578 36988 ft 508 kts 59°
2026-05-06 07:47 -7.08884 -10.16377 36989 ft 505 kts 59°
2026-05-06 07:48 -7.05466 -10.10227 36988 ft 501 kts 59°
2026-05-06 07:48 -7.02061 -10.04107 36985 ft 501 kts 59°
2026-05-06 07:49 -6.98000 -9.98517 36985 ft 497 kts 43°
2026-05-06 07:49 -6.92931 -9.93801 36985 ft 496 kts 39°
2026-05-06 07:50 -6.87693 -9.89284 36982 ft 496 kts 39°
2026-05-06 07:50 -6.82433 -9.84787 36982 ft 496 kts 39°
2026-05-06 07:51 -6.77220 -9.80297 36982 ft 495 kts 39°
2026-05-06 07:51 -6.71993 -9.75774 36982 ft 494 kts 39°
2026-05-06 07:52 -6.66795 -9.71271 36982 ft 492 kts 39°
2026-05-06 07:52 -6.61610 -9.66781 36982 ft 492 kts 39°
2026-05-06 07:53 -6.56421 -9.62291 36983 ft 492 kts 39°
2026-05-06 07:53 -6.51230 -9.57801 36983 ft 492 kts 39°
2026-05-06 07:54 -6.46044 -9.53316 36985 ft 491 kts 39°
2026-05-06 07:54 -6.40855 -9.48831 36985 ft 491 kts 39°
2026-05-06 07:55 -6.35697 -9.44372 36985 ft 491 kts 40°
2026-05-06 07:55 -6.30526 -9.39904 36984 ft 489 kts 40°
2026-05-06 07:56 -6.25346 -9.35429 36983 ft 490 kts 40°
2026-05-06 07:56 -6.20173 -9.30962 36982 ft 490 kts 40°
2026-05-06 07:57 -6.15042 -9.26533 36980 ft 490 kts 40°
2026-05-06 07:57 -6.09873 -9.22071 36974 ft 490 kts 40°
2026-05-06 07:58 -6.04701 -9.17609 36976 ft 489 kts 40°
2026-05-06 07:58 -5.99529 -9.13147 36983 ft 489 kts 40°
2026-05-06 07:59 -5.94385 -9.08710 36977 ft 484 kts 40°
2026-05-06 07:59 -5.89282 -9.04310 36979 ft 482 kts 40°
2026-05-06 08:00 -5.84196 -8.99925 36983 ft 482 kts 40°
2026-05-06 08:00 -5.79134 -8.95563 36983 ft 482 kts 40°
2026-05-06 08:01 -5.74046 -8.91179 36981 ft 482 kts 40°
2026-05-06 08:01 -5.68948 -8.86788 36981 ft 482 kts 40°
2026-05-06 08:02 -5.63848 -8.82396 36982 ft 482 kts 40°
2026-05-06 08:02 -5.58765 -8.78020 36979 ft 481 kts 40°
2026-05-06 08:03 -5.53715 -8.73673 36975 ft 481 kts 40°
2026-05-06 08:03 -5.48634 -8.69301 36975 ft 480 kts 40°
2026-05-06 08:04 -5.43555 -8.64931 36980 ft 480 kts 40°
2026-05-06 08:04 -5.38473 -8.60559 36980 ft 481 kts 40°
2026-05-06 08:05 -5.33395 -8.56193 36981 ft 480 kts 40°
2026-05-06 08:05 -5.28346 -8.51851 36981 ft 481 kts 40°
2026-05-06 08:06 -5.23266 -8.47485 36980 ft 480 kts 41°
2026-05-06 08:06 -5.18197 -8.43129 36979 ft 479 kts 41°
2026-05-06 08:07 -5.13133 -8.38778 36976 ft 479 kts 41°
2026-05-06 08:07 -5.08063 -8.34423 36973 ft 479 kts 41°
2026-05-06 08:08 -5.02998 -8.30072 36978 ft 479 kts 41°
2026-05-06 08:08 -4.97954 -8.25741 36980 ft 480 kts 41°
2026-05-06 08:09 -4.92882 -8.21388 36977 ft 480 kts 41°
2026-05-06 08:09 -4.87811 -8.17035 36978 ft 480 kts 41°
2026-05-06 08:10 -4.82761 -8.12701 36979 ft 480 kts 41°
2026-05-06 08:10 -4.77685 -8.08347 36977 ft 480 kts 41°
2026-05-06 08:11 -4.72616 -8.03999 36977 ft 480 kts 41°
2026-05-06 08:11 -4.67540 -7.99645 36973 ft 479 kts 41°
2026-05-06 08:12 -4.62458 -7.95288 36972 ft 479 kts 41°
2026-05-06 08:12 -4.57384 -7.90938 36973 ft 480 kts 41°
2026-05-06 08:13 -4.52338 -7.86614 36974 ft 480 kts 41°
2026-05-06 08:13 -4.47256 -7.82259 36975 ft 480 kts 41°
2026-05-06 08:14 -4.42174 -7.77905 36976 ft 481 kts 41°
2026-05-06 08:14 -4.37090 -7.73550 36975 ft 480 kts 41°
2026-05-06 08:15 -4.32009 -7.69198 36977 ft 480 kts 41°
2026-05-06 08:15 -4.26928 -7.64847 36976 ft 480 kts 40°
2026-05-06 08:16 -4.21879 -7.60525 36975 ft 480 kts 40°
2026-05-06 08:16 -4.16795 -7.56173 36972 ft 480 kts 40°
2026-05-06 08:17 -4.11710 -7.51822 36974 ft 480 kts 40°
2026-05-06 08:17 -4.06628 -7.47473 36974 ft 480 kts 40°
2026-05-06 08:18 -4.02402 -7.43857 36977 ft 480 kts 40°
2026-05-06 08:18 -3.96482 -7.38794 36978 ft 481 kts 40°
2026-05-06 08:19 -3.92224 -7.35151 36978 ft 481 kts 40°
2026-05-06 08:19 -3.87169 -7.30829 36978 ft 481 kts 40°
2026-05-06 08:20 -3.82082 -7.26480 36977 ft 480 kts 40°
2026-05-06 08:20 -3.76999 -7.22134 36973 ft 480 kts 40°
2026-05-06 08:21 -3.71907 -7.17782 36973 ft 480 kts 40°
2026-05-06 08:21 -3.66819 -7.13434 36973 ft 480 kts 40°
2026-05-06 08:22 -3.61770 -7.09120 36968 ft 480 kts 40°
2026-05-06 08:22 -3.56677 -7.04769 36969 ft 480 kts 40°
2026-05-06 08:23 -3.51589 -7.00423 36971 ft 480 kts 40°
2026-05-06 08:23 -3.46503 -6.96079 36972 ft 481 kts 40°
2026-05-06 08:24 -3.41442 -6.91758 36972 ft 480 kts 40°
2026-05-06 08:24 -3.36360 -6.87419 36971 ft 480 kts 40°
2026-05-06 08:25 -3.31268 -6.83072 36970 ft 481 kts 40°
2026-05-06 08:25 -3.26175 -6.78725 36971 ft 480 kts 40°
2026-05-06 08:26 -3.21086 -6.74381 36971 ft 480 kts 40°
2026-05-06 08:26 -3.16034 -6.70070 36971 ft 480 kts 40°
2026-05-06 08:27 -3.10947 -6.65730 36971 ft 480 kts 40°
2026-05-06 08:27 -3.05852 -6.61383 36972 ft 480 kts 40°
2026-05-06 08:28 -3.00762 -6.57042 36972 ft 480 kts 40°
2026-05-06 08:28 -2.95720 -6.52741 36971 ft 479 kts 40°
2026-05-06 08:29 -2.90640 -6.48409 36971 ft 479 kts 40°
2026-05-06 08:29 -2.85568 -6.44084 36971 ft 479 kts 40°
2026-05-06 08:30 -2.80526 -6.39785 36971 ft 479 kts 40°
2026-05-06 08:30 -2.75456 -6.35464 36971 ft 479 kts 40°
2026-05-06 08:31 -2.70386 -6.31142 36971 ft 479 kts 40°
2026-05-06 08:31 -2.65317 -6.26821 36975 ft 479 kts 40°
2026-05-06 08:32 -2.60248 -6.22502 36974 ft 477 kts 40°
2026-05-06 08:32 -2.55188 -6.18190 36974 ft 477 kts 40°
2026-05-06 08:33 -2.50167 -6.13912 36971 ft 477 kts 40°
2026-05-06 08:33 -2.45084 -6.09582 36971 ft 477 kts 40°
2026-05-06 08:34 -2.37534 -6.03150 36971 ft 476 kts 40°
2026-05-06 08:35 -2.32484 -5.98850 36973 ft 476 kts 40°
2026-05-06 08:35 -2.27436 -5.94550 36976 ft 476 kts 40°
2026-05-06 08:36 -2.22396 -5.90259 36974 ft 475 kts 40°
2026-05-06 08:36 -2.17388 -5.85995 36974 ft 475 kts 40°
2026-05-06 08:37 -2.12355 -5.81710 36970 ft 475 kts 40°
2026-05-06 08:37 -2.07317 -5.77421 36972 ft 475 kts 40°
2026-05-06 08:38 -2.02274 -5.73128 36974 ft 475 kts 40°
2026-05-06 08:38 -1.97269 -5.68868 36974 ft 475 kts 40°
2026-05-06 08:39 -1.92226 -5.64576 36974 ft 474 kts 40°
2026-05-06 08:39 -1.87200 -5.60299 36974 ft 474 kts 40°
2026-05-06 08:40 -1.82173 -5.56021 36973 ft 474 kts 40°
2026-05-06 08:40 -1.77167 -5.51762 36974 ft 475 kts 40°
2026-05-06 08:41 -1.72139 -5.47483 36971 ft 475 kts 40°
2026-05-06 08:41 -1.67107 -5.43202 36971 ft 475 kts 40°
2026-05-06 08:42 -1.62074 -5.38921 36974 ft 475 kts 40°
2026-05-06 08:42 -1.57045 -5.34643 36974 ft 475 kts 40°
2026-05-06 08:43 -1.52044 -5.30389 36972 ft 474 kts 40°
2026-05-06 08:43 -1.47018 -5.26115 36971 ft 474 kts 40°
2026-05-06 08:44 -1.41987 -5.21835 36971 ft 474 kts 40°
2026-05-06 08:44 -1.36957 -5.17558 36971 ft 474 kts 40°
2026-05-06 08:45 -1.31957 -5.13306 36973 ft 474 kts 40°
2026-05-06 08:45 -1.26931 -5.09032 36974 ft 474 kts 40°
2026-05-06 08:46 -1.21903 -5.04757 36971 ft 474 kts 40°
2026-05-06 08:46 -1.16872 -5.00479 36968 ft 474 kts 40°
2026-05-06 08:47 -1.11845 -4.96205 36965 ft 475 kts 40°
2026-05-06 08:47 -1.06838 -4.91949 36966 ft 475 kts 40°
2026-05-06 08:48 -1.01807 -4.87671 36968 ft 474 kts 40°
2026-05-06 08:48 -0.96776 -4.83394 36969 ft 474 kts 40°
2026-05-06 08:49 -0.91745 -4.79118 36971 ft 474 kts 40°
2026-05-06 08:49 -0.86713 -4.74841 36966 ft 474 kts 40°
2026-05-06 08:50 -0.81715 -4.70592 36964 ft 474 kts 40°
2026-05-06 08:50 -0.76684 -4.66317 36966 ft 474 kts 40°
2026-05-06 08:51 -0.71658 -4.62045 36963 ft 475 kts 40°
2026-05-06 08:51 -0.66624 -4.57766 36963 ft 475 kts 40°
2026-05-06 08:52 -0.61588 -4.53486 36965 ft 475 kts 40°
2026-05-06 08:52 -0.56541 -4.49197 36966 ft 476 kts 40°
2026-05-06 08:53 -0.51523 -4.44932 36965 ft 476 kts 40°
2026-05-06 08:53 -0.46479 -4.40645 36966 ft 476 kts 40°
2026-05-06 08:54 -0.41430 -4.36355 36963 ft 476 kts 40°
2026-05-06 08:54 -0.36388 -4.32070 36963 ft 476 kts 40°
2026-05-06 08:55 -0.31342 -4.27782 36966 ft 476 kts 40°
2026-05-06 08:55 -0.26335 -4.23527 36960 ft 476 kts 40°
2026-05-06 08:56 -0.21293 -4.19243 36963 ft 476 kts 40°
2026-05-06 08:56 -0.16251 -4.14958 36963 ft 476 kts 40°
2026-05-06 08:57 -0.11203 -4.10668 36962 ft 476 kts 40°
2026-05-06 08:57 -0.06152 -4.06377 36963 ft 476 kts 40°
2026-05-06 08:58 -0.01112 -4.02094 36967 ft 476 kts 40°
2026-05-06 08:58 0.03901 -3.97834 36963 ft 476 kts 40°
2026-05-06 08:59 0.08955 -3.93539 36963 ft 477 kts 40°
2026-05-06 08:59 0.14008 -3.89246 36963 ft 477 kts 40°
2026-05-06 09:00 0.19063 -3.84951 36962 ft 477 kts 40°
2026-05-06 09:00 0.24115 -3.80657 36961 ft 476 kts 40°
2026-05-06 09:01 0.29157 -3.76373 36962 ft 476 kts 40°
2026-05-06 09:01 0.34205 -3.72083 36960 ft 476 kts 40°
2026-05-06 09:02 0.39244 -3.67801 36961 ft 476 kts 40°
2026-05-06 09:02 0.44248 -3.63548 36960 ft 474 kts 40°
2026-05-06 09:03 0.49272 -3.59279 36960 ft 474 kts 40°
2026-05-06 09:03 0.54300 -3.55006 36960 ft 474 kts 40°
2026-05-06 09:04 0.59322 -3.50739 36960 ft 474 kts 40°
2026-05-06 09:04 0.64355 -3.46461 36960 ft 474 kts 40°
2026-05-06 09:05 0.69378 -3.42191 36961 ft 474 kts 40°
2026-05-06 09:05 0.74373 -3.37947 36960 ft 474 kts 40°
2026-05-06 09:06 0.79424 -3.33653 36957 ft 473 kts 40°
2026-05-06 09:06 0.84402 -3.29422 36958 ft 472 kts 40°
2026-05-06 09:07 0.89404 -3.25170 36957 ft 472 kts 40°
2026-05-06 09:07 0.93567 -3.21631 36958 ft 472 kts 40°
2026-05-06 09:08 0.99392 -3.16680 36958 ft 472 kts 40°
2026-05-06 09:08 1.03558 -3.13138 36957 ft 472 kts 40°
2026-05-06 09:09 1.08563 -3.08883 36958 ft 472 kts 40°
2026-05-06 09:09 1.13569 -3.04628 36956 ft 472 kts 40°
2026-05-06 09:10 1.18174 -2.99995 36958 ft 474 kts 53°
2026-05-06 09:10 1.21425 -2.94254 36958 ft 476 kts 65°
2026-05-06 09:11 1.24016 -2.88162 36955 ft 476 kts 67°
2026-05-06 09:11 1.26496 -2.82026 36955 ft 476 kts 67°
2026-05-06 09:12 1.28994 -2.75895 36953 ft 476 kts 67°
2026-05-06 09:12 1.31521 -2.69769 36955 ft 476 kts 66°
2026-05-06 09:13 1.34060 -2.63640 36955 ft 477 kts 66°
2026-05-06 09:13 1.36600 -2.57508 36955 ft 478 kts 66°
2026-05-06 09:14 1.39145 -2.51362 36953 ft 478 kts 66°
2026-05-06 09:14 1.41675 -2.45251 36952 ft 478 kts 66°
2026-05-06 09:15 1.44216 -2.39111 36955 ft 478 kts 66°
2026-05-06 09:15 1.46759 -2.32966 36955 ft 478 kts 66°
2026-05-06 09:16 1.49303 -2.26818 36954 ft 478 kts 66°
2026-05-06 09:16 1.51829 -2.20712 36955 ft 479 kts 66°
2026-05-06 09:17 1.54374 -2.14561 36951 ft 479 kts 66°
2026-05-06 09:17 1.56924 -2.08396 36955 ft 479 kts 66°
2026-05-06 09:18 1.59455 -2.02279 36954 ft 479 kts 66°
2026-05-06 09:18 1.61998 -1.96131 36955 ft 479 kts 66°
2026-05-06 09:19 1.64543 -1.89975 36953 ft 479 kts 67°
2026-05-06 09:19 1.67089 -1.83819 36955 ft 480 kts 67°
2026-05-06 09:20 1.69643 -1.77642 36955 ft 480 kts 67°
2026-05-06 09:20 1.72180 -1.71506 36955 ft 480 kts 67°
2026-05-06 09:21 1.74730 -1.65338 36955 ft 480 kts 67°
2026-05-06 09:21 1.77280 -1.59168 36955 ft 480 kts 67°
2026-05-06 09:22 1.79832 -1.52995 36957 ft 480 kts 67°
2026-05-06 09:22 1.82387 -1.46813 36958 ft 481 kts 67°
2026-05-06 09:23 1.84925 -1.40671 36957 ft 481 kts 67°
2026-05-06 09:23 1.87482 -1.34483 36957 ft 481 kts 67°
2026-05-06 09:24 1.90043 -1.28282 36956 ft 481 kts 67°
2026-05-06 09:24 1.92600 -1.22092 36958 ft 482 kts 67°
2026-05-06 09:25 1.95162 -1.15890 36957 ft 482 kts 67°
2026-05-06 09:25 1.97726 -1.09682 36958 ft 483 kts 67°
2026-05-06 09:26 2.00273 -1.03514 36957 ft 483 kts 67°
2026-05-06 09:26 2.02839 -0.97297 36959 ft 484 kts 67°
2026-05-06 09:27 2.05411 -0.91068 36958 ft 484 kts 67°
2026-05-06 09:27 2.07977 -0.84852 36956 ft 484 kts 67°
2026-05-06 09:28 2.10546 -0.78628 36959 ft 484 kts 67°
2026-05-06 09:28 2.13100 -0.72438 36961 ft 484 kts 67°
2026-05-06 09:29 2.15669 -0.66212 36960 ft 484 kts 67°
2026-05-06 09:29 2.18239 -0.59984 36958 ft 484 kts 67°
2026-05-06 09:30 2.20806 -0.53761 36961 ft 484 kts 67°
2026-05-06 09:30 2.23379 -0.47522 36960 ft 484 kts 67°
2026-05-06 09:31 2.25933 -0.41328 36961 ft 484 kts 67°
2026-05-06 09:31 2.28505 -0.35092 36961 ft 484 kts 67°
2026-05-06 09:32 2.31070 -0.28870 36959 ft 485 kts 67°
2026-05-06 09:32 2.33641 -0.22631 36961 ft 485 kts 67°
2026-05-06 09:33 2.36211 -0.16398 36962 ft 485 kts 67°
2026-05-06 09:33 2.38768 -0.10192 36960 ft 485 kts 67°
2026-05-06 09:34 2.41346 -0.03936 36961 ft 485 kts 67°
2026-05-06 09:34 2.43916 0.02303 36961 ft 485 kts 68°
2026-05-06 09:35 2.46489 0.08550 36961 ft 486 kts 68°
2026-05-06 09:35 2.49066 0.14807 36960 ft 486 kts 68°
2026-05-06 09:36 2.51622 0.21015 36960 ft 486 kts 68°
2026-05-06 09:36 2.54198 0.27269 36960 ft 486 kts 68°
2026-05-06 09:37 2.56772 0.33523 36962 ft 486 kts 68°
2026-05-06 09:37 2.59345 0.39774 36960 ft 486 kts 68°
2026-05-06 09:38 2.61920 0.46032 36960 ft 486 kts 68°
2026-05-06 09:38 2.64498 0.52296 36960 ft 486 kts 68°
2026-05-06 09:39 2.67073 0.58556 36960 ft 486 kts 68°
2026-05-06 09:39 2.69649 0.64819 36961 ft 487 kts 68°
2026-05-06 09:40 2.72229 0.71091 36960 ft 488 kts 68°
2026-05-06 09:40 2.76084 0.80468 36960 ft 487 kts 68°
2026-05-06 09:41 2.78665 0.86746 36959 ft 487 kts 68°
2026-05-06 09:41 2.81241 0.93014 36960 ft 487 kts 68°
2026-05-06 09:42 2.83821 0.99293 36960 ft 487 kts 68°
2026-05-06 09:42 2.86379 1.05517 36960 ft 487 kts 68°
2026-05-06 09:43 2.88954 1.11785 36961 ft 487 kts 68°
2026-05-06 09:43 2.91527 1.18051 36963 ft 487 kts 68°
2026-05-06 09:44 2.94102 1.24321 36963 ft 487 kts 68°
2026-05-06 09:44 2.96672 1.30580 36963 ft 487 kts 68°
2026-05-06 09:45 2.99242 1.36841 36964 ft 487 kts 68°
2026-05-06 09:45 3.01812 1.43105 36961 ft 486 kts 68°
2026-05-06 09:46 3.04370 1.49338 36961 ft 486 kts 68°
2026-05-06 09:46 3.06940 1.55602 36960 ft 487 kts 68°
2026-05-06 09:47 3.09510 1.61868 36959 ft 486 kts 68°
2026-05-06 09:47 3.12080 1.68135 36960 ft 486 kts 68°
2026-05-06 09:48 3.14634 1.74363 36960 ft 486 kts 68°
2026-05-06 09:48 3.17199 1.80619 36960 ft 486 kts 68°
2026-05-06 09:49 3.19767 1.86884 36961 ft 486 kts 68°
2026-05-06 09:49 3.22336 1.93154 36965 ft 486 kts 68°
2026-05-06 09:50 3.24913 1.99443 36960 ft 487 kts 68°
2026-05-06 09:50 3.27470 2.05685 36959 ft 488 kts 68°
2026-05-06 09:51 3.30045 2.11975 36961 ft 488 kts 68°
2026-05-06 09:51 3.32620 2.18264 36958 ft 488 kts 68°
2026-05-06 09:52 3.35178 2.24511 36957 ft 488 kts 68°
2026-05-06 09:52 3.37755 2.30808 36960 ft 488 kts 68°
2026-05-06 09:53 3.40333 2.37108 36954 ft 488 kts 68°
2026-05-06 09:53 3.42888 2.43353 36955 ft 488 kts 68°
2026-05-06 09:54 3.45463 2.49648 36955 ft 488 kts 68°
2026-05-06 09:54 3.48035 2.55938 36955 ft 488 kts 68°
2026-05-06 09:55 3.50608 2.62230 36954 ft 488 kts 68°
2026-05-06 09:55 3.53180 2.68524 36954 ft 488 kts 68°
2026-05-06 09:56 3.55315 2.73748 36949 ft 488 kts 68°
2026-05-06 09:56 3.57883 2.80032 36947 ft 488 kts 68°
2026-05-06 09:57 3.60453 2.86324 36947 ft 488 kts 68°
2026-05-06 09:57 3.63021 2.92610 36946 ft 488 kts 68°
2026-05-06 09:58 3.65571 2.98857 36947 ft 488 kts 68°
2026-05-06 09:58 3.68137 3.05142 36947 ft 488 kts 68°
2026-05-06 09:59 3.70703 3.11429 36944 ft 488 kts 68°
2026-05-06 09:59 3.73275 3.17732 36943 ft 488 kts 68°
2026-05-06 10:00 3.75826 3.23984 36947 ft 488 kts 68°
2026-05-06 10:00 3.78393 3.30280 36946 ft 488 kts 68°
2026-05-06 10:01 3.80958 3.36571 36938 ft 487 kts 68°
2026-05-06 10:01 3.83517 3.42849 36941 ft 486 kts 68°
2026-05-06 10:02 3.86073 3.49119 36938 ft 486 kts 68°
2026-05-06 10:02 3.88627 3.55386 36939 ft 486 kts 68°
2026-05-06 10:03 3.91181 3.61656 36940 ft 486 kts 68°
2026-05-06 10:03 3.93717 3.67884 36942 ft 486 kts 68°
2026-05-06 10:04 3.96273 3.74160 36936 ft 486 kts 68°
2026-05-06 10:04 3.98832 3.80449 36940 ft 486 kts 68°
2026-05-06 10:05 4.01936 3.86466 36938 ft 486 kts 60°
2026-05-06 10:05 4.05403 3.92241 36938 ft 487 kts 59°
2026-05-06 10:06 4.08960 3.98018 36936 ft 487 kts 58°
2026-05-06 10:06 4.12514 4.03797 36936 ft 487 kts 59°
2026-05-06 10:07 4.16057 4.09584 36938 ft 487 kts 59°
2026-05-06 10:07 4.19590 4.15366 36937 ft 487 kts 59°
2026-05-06 10:08 4.23116 4.21141 36939 ft 488 kts 59°
2026-05-06 10:08 4.26657 4.26942 36935 ft 487 kts 59°
2026-05-06 10:09 4.30196 4.32738 36936 ft 487 kts 59°
2026-05-06 10:09 4.33729 4.38526 36936 ft 487 kts 59°
2026-05-06 10:10 4.37261 4.44313 36936 ft 487 kts 59°
2026-05-06 10:10 4.40791 4.50098 36936 ft 487 kts 59°
2026-05-06 10:11 4.44300 4.55852 37219 ft 485 kts 59°
2026-05-06 10:11 4.46012 4.58756 37477 ft 483 kts 60°
2026-05-06 10:11 4.47673 4.61683 37662 ft 483 kts 61°
2026-05-06 10:12 4.49312 4.64615 37830 ft 483 kts 61°
2026-05-06 10:12 4.50952 4.67556 37980 ft 482 kts 61°
2026-05-06 10:12 4.52595 4.70492 38149 ft 482 kts 61°
2026-05-06 10:12 4.54239 4.73413 38306 ft 481 kts 60°
2026-05-06 10:13 4.55873 4.76305 38441 ft 481 kts 60°
2026-05-06 10:13 4.57524 4.79216 38657 ft 479 kts 61°
2026-05-06 10:13 4.59169 4.82116 38815 ft 478 kts 60°
2026-05-06 10:13 4.60813 4.85011 38918 ft 478 kts 60°
2026-05-06 10:14 4.64123 4.90841 38937 ft 481 kts 60°
2026-05-06 10:14 4.67432 4.96674 38936 ft 481 kts 60°
2026-05-06 10:15 4.70733 5.02496 38934 ft 480 kts 60°
2026-05-06 10:15 4.74011 5.08279 38936 ft 480 kts 60°
2026-05-06 10:16 4.77309 5.14096 38934 ft 480 kts 60°
2026-05-06 10:16 4.80613 5.19927 38933 ft 480 kts 60°
2026-05-06 10:17 4.83911 5.25751 38936 ft 480 kts 60°
2026-05-06 10:17 4.87176 5.31538 38936 ft 480 kts 60°
2026-05-06 10:18 4.90460 5.37360 38932 ft 480 kts 60°
2026-05-06 10:18 4.93750 5.43189 38935 ft 480 kts 61°
2026-05-06 10:19 4.97049 5.49033 38933 ft 482 kts 61°
2026-05-06 10:19 5.00334 5.54854 38936 ft 482 kts 61°
2026-05-06 10:20 5.03639 5.60714 38933 ft 482 kts 61°
2026-05-06 10:20 5.06896 5.66606 38933 ft 482 kts 62°
2026-05-06 10:21 5.10071 5.72542 38931 ft 482 kts 62°
2026-05-06 10:21 5.13220 5.78429 38933 ft 482 kts 62°
2026-05-06 10:22 5.16404 5.84351 38934 ft 481 kts 62°
2026-05-06 10:22 5.19589 5.90261 38932 ft 482 kts 62°
2026-05-06 10:23 5.22781 5.96180 38934 ft 481 kts 62°
2026-05-06 10:23 5.25967 6.02094 38933 ft 481 kts 62°
2026-05-06 10:24 5.29153 6.08009 38936 ft 482 kts 62°
2026-05-06 10:24 5.32314 6.13879 38936 ft 481 kts 62°
2026-05-06 10:25 5.35521 6.19792 38936 ft 481 kts 60°
2026-05-06 10:25 5.39004 6.25513 38936 ft 481 kts 58°
2026-05-06 10:26 5.42597 6.31192 38932 ft 481 kts 58°
2026-05-06 10:26 5.46149 6.36884 38937 ft 481 kts 58°
2026-05-06 10:27 5.49646 6.42560 38936 ft 481 kts 59°
2026-05-06 10:27 5.53017 6.48357 38937 ft 481 kts 62°
2026-05-06 10:28 5.56173 6.54276 38939 ft 480 kts 62°
2026-05-06 10:28 5.59330 6.60192 38939 ft 480 kts 62°
2026-05-06 10:29 5.62526 6.66091 38939 ft 480 kts 62°
2026-05-06 10:29 5.65737 6.71978 38939 ft 480 kts 62°
2026-05-06 10:30 5.68934 6.77832 38939 ft 481 kts 62°
2026-05-06 10:30 5.72159 6.83743 38939 ft 483 kts 62°
2026-05-06 10:31 5.75389 6.89668 38941 ft 484 kts 62°
2026-05-06 10:31 5.78622 6.95602 38942 ft 484 kts 62°
2026-05-06 10:32 5.81853 7.01526 38939 ft 484 kts 61°
2026-05-06 10:32 5.85208 7.07390 38939 ft 484 kts 60°
2026-05-06 10:33 5.88600 7.13189 38941 ft 484 kts 60°
2026-05-06 10:33 5.91995 7.19025 38940 ft 484 kts 60°
2026-05-06 10:34 5.95374 7.24873 38941 ft 484 kts 60°
2026-05-06 10:34 5.98749 7.30727 38938 ft 484 kts 60°
2026-05-06 10:35 6.02124 7.36584 38939 ft 484 kts 60°
2026-05-06 10:35 6.05497 7.42433 38940 ft 483 kts 60°
2026-05-06 10:36 6.08902 7.48233 38940 ft 481 kts 59°
2026-05-06 10:36 6.12316 7.54009 38939 ft 480 kts 59°
2026-05-06 10:37 6.15702 7.59750 38934 ft 480 kts 60°
2026-05-06 10:37 6.19111 7.65546 38940 ft 483 kts 60°
2026-05-06 10:38 6.22540 7.71380 38939 ft 485 kts 60°
2026-05-06 10:38 6.25970 7.77218 38933 ft 485 kts 60°
2026-05-06 10:39 6.29402 7.83061 38929 ft 485 kts 60°
2026-05-06 10:39 6.32812 7.88870 38930 ft 485 kts 60°
2026-05-06 10:40 6.36248 7.94722 38930 ft 485 kts 60°
2026-05-06 10:40 6.39684 8.00578 38929 ft 485 kts 60°
2026-05-06 10:41 6.43106 8.06412 38931 ft 484 kts 60°
2026-05-06 10:41 6.46529 8.12248 38931 ft 485 kts 60°
2026-05-06 10:42 6.49935 8.18058 38927 ft 485 kts 60°
2026-05-06 10:42 6.53357 8.23897 38924 ft 485 kts 60°
2026-05-06 10:43 6.56780 8.29740 38927 ft 485 kts 60°
2026-05-06 10:44 6.61914 8.38508 38926 ft 484 kts 60°
2026-05-06 10:44 6.65303 8.44298 38923 ft 483 kts 60°
2026-05-06 10:45 6.68710 8.50121 38927 ft 482 kts 60°
2026-05-06 10:45 6.72116 8.55944 38926 ft 482 kts 60°
2026-05-06 10:46 6.75498 8.61728 38921 ft 482 kts 60°
2026-05-06 10:46 6.78905 8.67556 38921 ft 483 kts 60°
2026-05-06 10:47 6.81740 8.72407 38923 ft 484 kts 60°
2026-05-06 10:47 6.85153 8.78250 38922 ft 484 kts 60°
2026-05-06 10:48 6.89118 8.85041 38922 ft 483 kts 60°
2026-05-06 10:48 6.91974 8.89939 38921 ft 484 kts 60°
2026-05-06 10:49 6.95357 8.95743 38920 ft 484 kts 60°
2026-05-06 10:49 6.98764 9.01590 38918 ft 484 kts 60°
2026-05-06 10:50 7.02174 9.07444 38923 ft 484 kts 60°
2026-05-06 10:50 7.05582 9.13297 38915 ft 485 kts 59°
2026-05-06 10:51 7.08994 9.19158 38914 ft 486 kts 59°
2026-05-06 10:51 7.12295 9.25039 38914 ft 486 kts 61°
2026-05-06 10:52 7.15539 9.31021 38914 ft 485 kts 61°
2026-05-06 10:52 7.18787 9.36995 38913 ft 485 kts 61°
2026-05-06 10:53 7.22046 9.42952 38913 ft 485 kts 61°
2026-05-06 10:53 7.25291 9.48868 38913 ft 485 kts 60°
2026-05-06 10:54 7.28564 9.54835 38912 ft 486 kts 60°
2026-05-06 10:54 7.31835 9.60802 38911 ft 486 kts 60°
2026-05-06 10:55 7.35103 9.66767 38912 ft 486 kts 60°
2026-05-06 10:55 7.38349 9.72695 38914 ft 486 kts 60°
2026-05-06 10:56 7.41615 9.78661 38910 ft 486 kts 60°
2026-05-06 10:56 7.44881 9.84630 38907 ft 486 kts 60°
2026-05-06 10:57 7.48156 9.90619 38921 ft 489 kts 60°
2026-05-06 10:57 7.51433 9.96613 38911 ft 491 kts 60°
2026-05-06 10:58 7.54731 10.02647 38911 ft 491 kts 59°
2026-05-06 10:58 7.58029 10.08680 38909 ft 491 kts 59°
2026-05-06 10:59 7.61320 10.14715 38912 ft 491 kts 60°
2026-05-06 10:59 7.64585 10.20714 38906 ft 491 kts 60°
2026-05-06 11:00 7.67882 10.26771 38908 ft 493 kts 60°
2026-05-06 11:00 7.71181 10.32832 38917 ft 493 kts 60°
2026-05-06 11:01 7.74484 10.38903 38918 ft 493 kts 60°
2026-05-06 11:01 7.77787 10.44984 38916 ft 493 kts 60°
2026-05-06 11:02 7.81062 10.51005 38916 ft 493 kts 60°
2026-05-06 11:02 7.84362 10.57078 38920 ft 493 kts 60°
2026-05-06 11:03 7.87665 10.63158 38917 ft 495 kts 60°
2026-05-06 11:03 7.90980 10.69265 38906 ft 495 kts 60°
2026-05-06 11:04 7.94287 10.75360 38906 ft 495 kts 60°
2026-05-06 11:04 7.97576 10.81423 38905 ft 495 kts 60°
2026-05-06 11:05 8.00880 10.87518 38906 ft 495 kts 60°
2026-05-06 11:05 8.04184 10.93615 38906 ft 495 kts 60°
2026-05-06 11:06 8.07489 10.99717 38896 ft 495 kts 60°
2026-05-06 11:06 8.10796 11.05826 38899 ft 495 kts 60°
2026-05-06 11:07 8.14075 11.11884 38898 ft 495 kts 60°
2026-05-06 11:07 8.17384 11.18001 38898 ft 495 kts 60°
2026-05-06 11:08 8.20685 11.24107 38895 ft 495 kts 59°
2026-05-06 11:08 8.23965 11.30176 38892 ft 495 kts 59°
2026-05-06 11:09 8.27260 11.36276 38902 ft 494 kts 59°
2026-05-06 11:09 8.30552 11.42371 38900 ft 494 kts 59°
2026-05-06 11:10 8.33841 11.48465 38912 ft 494 kts 59°
2026-05-06 11:10 8.37129 11.54560 38912 ft 494 kts 59°
2026-05-06 11:11 8.40417 11.60656 38917 ft 494 kts 59°
2026-05-06 11:11 8.43704 11.66754 38918 ft 494 kts 59°
2026-05-06 11:12 8.46969 11.72815 38916 ft 493 kts 59°
2026-05-06 11:12 8.50248 11.78904 38918 ft 493 kts 59°
2026-05-06 11:13 8.53530 11.85000 38921 ft 493 kts 59°
2026-05-06 11:13 8.56811 11.91098 38906 ft 495 kts 59°
2026-05-06 11:14 8.60102 11.97218 38906 ft 496 kts 59°
2026-05-06 11:14 8.63323 12.03212 38892 ft 495 kts 59°
2026-05-06 11:15 8.66612 12.09333 38877 ft 495 kts 59°
2026-05-06 11:15 8.69878 12.15416 38878 ft 495 kts 59°
2026-05-06 11:16 8.73164 12.21538 38868 ft 495 kts 59°
2026-05-06 11:16 8.76453 12.27668 38859 ft 495 kts 59°
2026-05-06 11:17 8.79944 12.33648 38862 ft 492 kts 51°
2026-05-06 11:17 8.84333 12.38870 38862 ft 490 kts 45°
2026-05-06 11:18 8.88955 12.43935 38854 ft 489 kts 44°
2026-05-06 11:18 8.93595 12.48953 38850 ft 487 kts 44°
2026-05-06 11:19 8.98216 12.53975 38849 ft 487 kts 44°
2026-05-06 11:19 9.02819 12.59003 38837 ft 487 kts 44°
2026-05-06 11:20 9.07420 12.64038 38838 ft 487 kts 44°
2026-05-06 11:20 9.11991 12.69043 38836 ft 487 kts 44°
2026-05-06 11:21 9.16415 12.74247 38831 ft 490 kts 52°
2026-05-06 11:21 9.19448 12.80460 38832 ft 497 kts 69°
2026-05-06 11:22 9.21363 12.87196 38828 ft 499 kts 72°
2026-05-06 11:22 9.23071 12.94012 38835 ft 499 kts 72°
2026-05-06 11:23 9.24763 13.00768 38829 ft 497 kts 72°
2026-05-06 11:23 9.26498 13.07554 38829 ft 497 kts 72°
2026-05-06 11:24 9.28246 13.14323 38831 ft 497 kts 71°
2026-05-06 11:24 9.29997 13.21099 38832 ft 497 kts 71°
2026-05-06 11:25 9.31743 13.27866 38830 ft 497 kts 71°
2026-05-06 11:25 9.33587 13.34618 38828 ft 495 kts 67°
2026-05-06 11:26 9.35889 13.41127 38832 ft 494 kts 66°
2026-05-06 11:26 9.38298 13.47640 38831 ft 494 kts 65°
2026-05-06 11:27 9.40725 13.54152 38830 ft 493 kts 65°
2026-05-06 11:27 9.43141 13.60665 38831 ft 493 kts 65°
2026-05-06 11:28 9.45552 13.67185 38827 ft 493 kts 65°
2026-05-06 11:28 9.47939 13.73651 38831 ft 493 kts 65°
2026-05-06 11:29 9.50345 13.80171 38821 ft 493 kts 65°
2026-05-06 11:29 9.52748 13.86685 38816 ft 493 kts 65°
2026-05-06 11:30 9.55150 13.93202 38828 ft 494 kts 65°
2026-05-06 11:30 9.57548 13.99717 38816 ft 493 kts 65°
2026-05-06 11:31 9.59932 14.06194 38817 ft 492 kts 65°
2026-05-06 11:31 9.62326 14.12699 38813 ft 492 kts 65°
2026-05-06 11:32 9.64717 14.19203 38815 ft 492 kts 65°
2026-05-06 11:32 9.67108 14.25709 38812 ft 493 kts 65°
2026-05-06 11:33 9.69499 14.32221 38806 ft 493 kts 65°
2026-05-06 11:33 9.71876 14.38701 38802 ft 493 kts 65°
2026-05-06 11:34 9.74270 14.45228 38799 ft 493 kts 65°
2026-05-06 11:34 9.76657 14.51743 38800 ft 493 kts 65°
2026-05-06 11:35 9.79046 14.58267 38800 ft 493 kts 65°
2026-05-06 11:35 9.81431 14.64785 38794 ft 493 kts 65°
2026-05-06 11:36 9.83815 14.71306 38791 ft 493 kts 65°
2026-05-06 11:36 9.85795 14.76724 38792 ft 493 kts 65°
2026-05-06 11:37 9.88184 14.83265 38801 ft 493 kts 65°
2026-05-06 11:37 9.90551 14.89748 38786 ft 493 kts 65°
2026-05-06 11:38 9.92934 14.96283 38790 ft 494 kts 65°
2026-05-06 11:38 9.95321 15.02827 38790 ft 495 kts 65°
2026-05-06 11:39 9.97712 15.09394 38789 ft 495 kts 65°
2026-05-06 11:39 10.00097 15.15946 38783 ft 495 kts 65°
2026-05-06 11:40 10.02468 15.22465 38788 ft 495 kts 65°
2026-05-06 11:40 10.04852 15.29023 38786 ft 495 kts 65°
2026-05-06 11:41 10.07245 15.35608 38778 ft 497 kts 65°
2026-05-06 11:41 10.09636 15.42194 38776 ft 498 kts 65°
2026-05-06 11:42 10.12031 15.48798 38769 ft 498 kts 65°
2026-05-06 11:42 10.14422 15.55396 38774 ft 498 kts 65°
2026-05-06 11:43 10.16799 15.61958 38773 ft 498 kts 65°
2026-05-06 11:43 10.19188 15.68555 38776 ft 498 kts 65°
2026-05-06 11:44 10.22773 15.78469 38771 ft 498 kts 65°
2026-05-06 11:44 10.25144 15.85031 38766 ft 498 kts 65°
2026-05-06 11:45 10.28224 15.91232 38769 ft 487 kts 50°
2026-05-06 11:45 10.32221 15.96780 38763 ft 485 kts 47°
2026-05-06 11:46 10.36291 16.02086 38758 ft 485 kts 47°
2026-05-06 11:46 10.40471 16.07505 38765 ft 489 kts 47°
2026-05-06 11:47 10.44646 16.12961 38765 ft 489 kts 47°
2026-05-06 11:47 10.48809 16.18429 38766 ft 489 kts 48°
2026-05-06 11:48 10.52970 16.23903 38754 ft 489 kts 48°
2026-05-06 11:48 10.57110 16.29349 38754 ft 489 kts 48°
2026-05-06 11:49 10.61273 16.34828 38756 ft 489 kts 48°
2026-05-06 11:49 10.65449 16.40325 38761 ft 491 kts 48°
2026-05-06 11:50 10.69635 16.45838 38755 ft 492 kts 48°
2026-05-06 11:50 10.73819 16.51352 38760 ft 492 kts 48°
2026-05-06 11:51 10.77974 16.56832 38759 ft 492 kts 48°
2026-05-06 11:51 10.82159 16.62352 38758 ft 492 kts 48°
2026-05-06 11:52 10.86344 16.67876 38785 ft 491 kts 48°
2026-05-06 11:52 10.90515 16.73385 38775 ft 492 kts 48°
2026-05-06 11:53 10.94691 16.78899 38783 ft 496 kts 48°
2026-05-06 11:53 10.98904 16.84469 38784 ft 497 kts 48°
2026-05-06 11:54 11.03118 16.90044 38786 ft 497 kts 48°
2026-05-06 11:54 11.07337 16.95629 38789 ft 497 kts 48°
2026-05-06 11:55 11.11553 17.01211 38791 ft 497 kts 48°
2026-05-06 11:55 11.15739 17.06756 38790 ft 497 kts 48°
2026-05-06 11:56 11.19966 17.12358 38788 ft 499 kts 48°
2026-05-06 11:56 11.24200 17.17971 38788 ft 500 kts 48°
2026-05-06 11:57 11.28446 17.23606 38785 ft 500 kts 48°
2026-05-06 11:57 11.32681 17.29230 38785 ft 500 kts 48°
2026-05-06 11:58 11.36885 17.34814 38782 ft 500 kts 48°
2026-05-06 11:58 11.41118 17.40441 38787 ft 500 kts 48°
2026-05-06 11:59 11.45364 17.46086 38777 ft 501 kts 48°
2026-05-06 11:59 11.49606 17.51731 38779 ft 502 kts 48°
2026-05-06 12:00 11.53853 17.57386 38780 ft 501 kts 49°
2026-05-06 12:00 11.58063 17.62993 38785 ft 500 kts 49°
2026-05-06 12:01 11.62301 17.68641 38784 ft 500 kts 49°
2026-05-06 12:01 11.66527 17.74275 38779 ft 500 kts 49°
2026-05-06 12:02 11.70749 17.79908 38783 ft 499 kts 49°
2026-05-06 12:02 11.74938 17.85500 38782 ft 499 kts 49°
2026-05-06 12:03 11.79155 17.91132 38781 ft 499 kts 49°
2026-05-06 12:03 11.83367 17.96761 38784 ft 499 kts 49°
2026-05-06 12:04 11.87593 18.02409 38788 ft 500 kts 49°
2026-05-06 12:04 11.91795 18.08032 38782 ft 500 kts 49°
2026-05-06 12:05 11.96029 18.13703 38782 ft 500 kts 49°
2026-05-06 12:05 12.00254 18.19362 38782 ft 500 kts 49°
2026-05-06 12:06 12.04447 18.24983 38774 ft 500 kts 49°
2026-05-06 12:06 12.08662 18.30636 38773 ft 500 kts 49°
2026-05-06 12:07 12.12879 18.36295 38777 ft 500 kts 49°
2026-05-06 12:07 12.17096 18.41957 38767 ft 499 kts 49°
2026-05-06 12:08 12.21307 18.47614 38768 ft 500 kts 49°
2026-05-06 12:08 12.25520 18.53278 38768 ft 501 kts 49°
2026-05-06 12:09 12.29741 18.58954 38754 ft 501 kts 49°
2026-05-06 12:09 12.33930 18.64592 38754 ft 501 kts 49°
2026-05-06 12:10 12.38141 18.70263 38757 ft 501 kts 49°
2026-05-06 12:10 12.42354 18.75940 38750 ft 501 kts 49°
2026-05-06 12:11 12.46569 18.81622 38756 ft 503 kts 50°
2026-05-06 12:11 12.50805 18.87336 38746 ft 504 kts 50°
2026-05-06 12:12 12.55044 18.93060 38738 ft 504 kts 50°
2026-05-06 12:12 12.59279 18.98781 38738 ft 504 kts 50°
2026-05-06 12:13 12.63484 19.04466 38738 ft 504 kts 50°
2026-05-06 12:13 12.67716 19.10190 38735 ft 504 kts 50°
2026-05-06 12:14 12.71955 19.15926 38736 ft 507 kts 50°
2026-05-06 12:14 12.76236 19.21719 38736 ft 512 kts 50°
2026-05-06 12:15 12.80503 19.27504 38735 ft 511 kts 50°
2026-05-06 12:15 12.84785 19.33312 38735 ft 510 kts 50°
2026-05-06 12:16 12.89069 19.39125 38734 ft 510 kts 50°
2026-05-06 12:16 12.93345 19.44930 38733 ft 510 kts 50°
2026-05-06 12:17 12.97623 19.50740 38736 ft 513 kts 51°
2026-05-06 12:17 13.01863 19.56659 38741 ft 520 kts 52°
2026-05-06 12:18 13.06036 19.62737 38740 ft 520 kts 53°
2026-05-06 12:18 13.10202 19.68807 38745 ft 518 kts 52°
2026-05-06 12:19 13.14360 19.74823 38745 ft 516 kts 52°
2026-05-06 12:19 13.18522 19.80827 38750 ft 516 kts 52°
2026-05-06 12:20 13.22707 19.86861 38747 ft 522 kts 53°
2026-05-06 12:20 13.26907 19.92925 38749 ft 525 kts 53°
2026-05-06 12:21 13.31140 19.99045 38749 ft 524 kts 53°
2026-05-06 12:21 13.35365 20.05158 38749 ft 524 kts 53°
2026-05-06 12:22 13.39590 20.11273 38761 ft 524 kts 52°
2026-05-06 12:22 13.43802 20.17374 38753 ft 524 kts 53°
2026-05-06 12:23 13.48013 20.23475 38751 ft 528 kts 53°
2026-05-06 12:23 13.52266 20.29645 38751 ft 528 kts 53°
2026-05-06 12:24 13.56516 20.35815 38755 ft 528 kts 53°
2026-05-06 12:24 13.60735 20.41943 38755 ft 528 kts 53°
2026-05-06 12:25 13.64260 20.47068 38752 ft 528 kts 53°
2026-05-06 12:25 13.68515 20.53255 38752 ft 531 kts 53°
2026-05-06 12:26 13.72797 20.59488 38753 ft 533 kts 53°
2026-05-06 12:26 13.77073 20.65717 38813 ft 533 kts 53°
2026-05-06 12:27 13.81364 20.71940 38841 ft 533 kts 52°
2026-05-06 12:27 13.85912 20.77905 38857 ft 532 kts 49°
2026-05-06 12:28 13.90588 20.83813 38855 ft 533 kts 50°
2026-05-06 12:28 13.95248 20.89773 38848 ft 535 kts 50°
2026-05-06 12:29 13.99877 20.95771 38831 ft 535 kts 50°
2026-05-06 12:29 14.04464 21.01741 38807 ft 534 kts 50°
2026-05-06 12:30 14.09073 21.07743 38774 ft 534 kts 50°
2026-05-06 12:30 14.13692 21.13760 38777 ft 534 kts 50°
2026-05-06 12:31 14.18314 21.19784 38783 ft 536 kts 51°
2026-05-06 12:31 14.22909 21.25777 38787 ft 536 kts 51°
2026-05-06 12:32 14.27531 21.31808 38793 ft 536 kts 51°
2026-05-06 12:32 14.32148 21.37840 38785 ft 536 kts 50°
2026-05-06 12:33 14.36762 21.43870 38813 ft 535 kts 50°
2026-05-06 12:33 14.41373 21.49902 38812 ft 535 kts 50°
2026-05-06 12:34 14.45989 21.55943 38804 ft 535 kts 50°
2026-05-06 12:34 14.50599 21.61983 38824 ft 535 kts 50°
2026-05-06 12:35 14.55212 21.68030 38822 ft 535 kts 50°
2026-05-06 12:35 14.59815 21.74070 38819 ft 535 kts 50°
2026-05-06 12:36 14.64381 21.80065 38830 ft 534 kts 50°
2026-05-06 12:36 14.68981 21.86109 38831 ft 536 kts 50°
2026-05-06 12:37 14.73591 21.92170 38832 ft 537 kts 50°
2026-05-06 12:37 14.78204 21.98241 38846 ft 537 kts 50°
2026-05-06 12:38 14.82823 22.04323 38839 ft 537 kts 50°
2026-05-06 12:38 14.87430 22.10396 38855 ft 537 kts 51°
2026-05-06 12:39 14.92032 22.16466 38849 ft 536 kts 50°
2026-05-06 12:39 14.96642 22.22551 38860 ft 537 kts 50°